Time,TemperatureF,DewpointF,PressureIn,WindDirection,WindDirectionDegrees,WindSpeedMPH,WindSpeedGustMPH,Humidity,HourlyPrecipIn,Conditions,Clouds,dailyrainin,SoftwareType,DateUTC
2013-08-02 00:02:00,80.8,71.4,29.85,ESE,113,2.0,3.6,73,0.00,,,0.00,WUHU216HW,2013-08-02 05:02:00,
2013-08-02 00:07:00,80.8,71.4,29.86,ESE,113,2.0,3.6,73,0.00,,,0.00,WUHU216HW,2013-08-02 05:07:00,
2013-08-02 00:12:00,80.6,71.2,29.85,East,90,1.3,2.5,73,0.00,,,0.00,WUHU216HW,2013-08-02 05:12:00,
2013-08-02 00:17:00,80.8,71.4,29.85,ENE,68,2.9,2.9,73,0.00,,,0.00,WUHU216HW,2013-08-02 05:17:00,
2013-08-02 00:22:00,80.6,71.2,29.85,ESE,113,2.7,4.0,73,0.00,,,0.00,WUHU216HW,2013-08-02 05:22:00,
2013-08-02 00:27:00,80.6,70.8,29.85,East,90,3.4,4.0,72,0.00,,,0.00,WUHU216HW,2013-08-02 05:27:00,
2013-08-02 00:32:00,80.5,71.0,29.85,East,90,0.9,4.0,73,0.00,,,0.00,WUHU216HW,2013-08-02 05:32:00,
2013-08-02 00:37:00,80.3,70.8,29.85,ESE,113,1.8,3.1,73,0.00,,,0.00,WUHU216HW,2013-08-02 05:37:00,
2013-08-02 00:42:00,80.5,70.7,29.85,East,90,1.1,2.5,72,0.00,,,0.00,WUHU216HW,2013-08-02 05:42:00,
2013-08-02 00:47:00,80.3,70.5,29.85,ESE,113,2.5,2.9,72,0.00,,,0.00,WUHU216HW,2013-08-02 05:47:00,
2013-08-02 00:52:00,80.3,70.8,29.85,East,90,0.7,2.9,73,0.00,,,0.00,WUHU216HW,2013-08-02 05:52:00,
2013-08-02 00:57:00,80.3,70.8,29.85,SE,135,1.8,2.5,73,0.00,,,0.00,WUHU216HW,2013-08-02 05:57:00,
2013-08-02 01:02:00,80.3,70.8,29.85,ESE,113,2.7,3.1,73,0.00,,,0.00,WUHU216HW,2013-08-02 06:02:00,
2013-08-02 01:07:00,80.3,70.8,29.85,ESE,113,0.9,3.1,73,0.00,,,0.00,WUHU216HW,2013-08-02 06:07:00,
2013-08-02 01:12:00,80.1,70.7,29.85,ESE,113,1.8,2.5,73,0.00,,,0.00,WUHU216HW,2013-08-02 06:12:00,
2013-08-02 01:17:00,80.3,70.5,29.85,East,90,0.0,1.8,72,0.00,,,0.00,WUHU216HW,2013-08-02 06:17:00,
2013-08-02 01:22:00,80.3,70.5,29.85,ESE,113,1.1,1.8,72,0.00,,,0.00,WUHU216HW,2013-08-02 06:22:00,
2013-08-02 01:27:00,80.3,70.5,29.85,East,90,0.2,1.3,72,0.00,,,0.00,WUHU216HW,2013-08-02 06:27:00,
2013-08-02 01:32:00,80.1,70.3,29.85,East,90,0.0,1.3,72,0.00,,,0.00,WUHU216HW,2013-08-02 06:32:00,
2013-08-02 01:37:00,80.1,70.3,29.85,East,90,0.0,1.3,72,0.00,,,0.00,WUHU216HW,2013-08-02 06:37:00,
2013-08-02 01:42:00,79.9,70.5,29.85,East,90,0.4,1.3,73,0.00,,,0.00,WUHU216HW,2013-08-02 06:42:00,
2013-08-02 01:47:00,79.9,70.5,29.85,East,90,1.1,1.1,73,0.00,,,0.00,WUHU216HW,2013-08-02 06:47:00,
2013-08-02 01:52:00,79.6,70.1,29.85,SE,135,1.6,1.8,73,0.00,,,0.00,WUHU216HW,2013-08-02 06:52:00,
2013-08-02 01:57:00,79.6,70.1,29.85,ESE,113,0.9,1.8,73,0.00,,,0.00,WUHU216HW,2013-08-02 06:57:00,
2013-08-02 02:02:00,79.6,70.6,29.85,ESE,113,0.4,1.1,74,0.00,,,0.00,WUHU216HW,2013-08-02 07:02:00,
2013-08-02 02:07:00,79.4,70.4,29.85,ESE,113,0.4,1.1,74,0.00,,,0.00,WUHU216HW,2013-08-02 07:07:00,
2013-08-02 02:12:00,79.4,70.4,29.85,ESE,113,0.0,1.1,74,0.00,,,0.00,WUHU216HW,2013-08-02 07:12:00,
2013-08-02 02:17:00,79.2,70.2,29.85,East,90,0.0,0.4,74,0.00,,,0.00,WUHU216HW,2013-08-02 07:17:00,
2013-08-02 02:22:00,79.2,69.8,29.85,NE,45,0.0,0.4,73,0.00,,,0.00,WUHU216HW,2013-08-02 07:22:00,
2013-08-02 02:27:00,79.2,69.8,29.85,NNE,23,0.0,0.7,73,0.00,,,0.00,WUHU216HW,2013-08-02 07:27:00,
2013-08-02 02:32:00,79.2,69.8,29.85,NNE,23,1.1,1.1,73,0.00,,,0.00,WUHU216HW,2013-08-02 07:32:00,
2013-08-02 02:37:00,79.0,69.6,29.85,North,0,0.0,1.1,73,0.00,,,0.00,WUHU216HW,2013-08-02 07:37:00,
2013-08-02 02:42:00,79.0,69.6,29.84,North,0,0.0,0.7,73,0.00,,,0.00,WUHU216HW,2013-08-02 07:42:00,
2013-08-02 02:47:00,78.8,69.4,29.85,North,0,0.0,0.7,73,0.00,,,0.00,WUHU216HW,2013-08-02 07:47:00,
2013-08-02 02:52:00,78.8,69.4,29.84,North,0,0.0,0.0,73,0.00,,,0.00,WUHU216HW,2013-08-02 07:52:00,
2013-08-02 02:57:00,78.8,69.4,29.85,North,0,0.0,0.0,73,0.00,,,0.00,WUHU216HW,2013-08-02 07:57:00,
2013-08-02 03:02:00,78.7,69.2,29.85,North,0,0.0,0.0,73,0.00,,,0.00,WUHU216HW,2013-08-02 08:02:00,
2013-08-02 03:07:00,78.7,69.7,29.84,North,0,0.0,0.0,74,0.00,,,0.00,WUHU216HW,2013-08-02 08:07:00,
2013-08-02 03:12:00,78.5,69.5,29.85,North,0,0.0,0.0,74,0.00,,,0.00,WUHU216HW,2013-08-02 08:12:00,
2013-08-02 03:17:00,78.5,69.5,29.84,North,0,0.0,0.0,74,0.00,,,0.00,WUHU216HW,2013-08-02 08:17:00,
2013-08-02 03:22:00,78.1,69.1,29.84,North,0,0.0,0.0,74,0.00,,,0.00,WUHU216HW,2013-08-02 08:22:00,
2013-08-02 03:27:00,77.9,69.3,29.84,North,0,0.0,0.0,75,0.00,,,0.00,WUHU216HW,2013-08-02 08:27:00,
2013-08-02 03:32:00,77.8,69.2,29.84,North,0,0.0,0.0,75,0.00,,,0.00,WUHU216HW,2013-08-02 08:32:00,
2013-08-02 03:37:00,77.4,68.9,29.84,North,0,0.0,0.0,75,0.00,,,0.00,WUHU216HW,2013-08-02 08:37:00,
2013-08-02 03:42:00,77.4,68.9,29.84,North,0,0.0,0.0,75,0.00,,,0.00,WUHU216HW,2013-08-02 08:42:00,
2013-08-02 03:47:00,77.2,69.0,29.84,North,0,0.0,0.0,76,0.00,,,0.00,WUHU216HW,2013-08-02 08:47:00,
2013-08-02 03:52:00,77.2,69.0,29.84,North,0,0.0,0.0,76,0.00,,,0.00,WUHU216HW,2013-08-02 08:52:00,
2013-08-02 03:57:00,77.0,69.2,29.84,North,0,0.0,0.0,77,0.00,,,0.00,WUHU216HW,2013-08-02 08:57:00,
2013-08-02 04:02:00,76.9,69.5,29.84,North,0,0.0,0.0,78,0.00,,,0.00,WUHU216HW,2013-08-02 09:02:00,
2013-08-02 04:07:00,76.7,69.3,29.84,North,0,0.0,0.0,78,0.00,,,0.00,WUHU216HW,2013-08-02 09:07:00,
2013-08-02 04:12:00,76.5,69.9,29.84,NNE,23,0.0,0.4,80,0.00,,,0.00,WUHU216HW,2013-08-02 09:12:00,
2013-08-02 04:17:00,76.5,70.3,29.84,East,90,1.1,1.1,81,0.00,,,0.00,WUHU216HW,2013-08-02 09:17:00,
2013-08-02 04:22:00,76.5,70.3,29.83,ESE,113,0.4,1.1,81,0.00,,,0.00,WUHU216HW,2013-08-02 09:22:00,
2013-08-02 04:27:00,76.5,69.9,29.83,ESE,113,0.0,1.1,80,0.00,,,0.00,WUHU216HW,2013-08-02 09:27:00,
2013-08-02 04:32:00,76.3,70.1,29.83,ESE,113,0.0,0.0,81,0.00,,,0.00,WUHU216HW,2013-08-02 09:32:00,
2013-08-02 04:37:00,76.3,69.8,29.83,ESE,113,0.0,0.0,80,0.00,,,0.00,WUHU216HW,2013-08-02 09:37:00,
2013-08-02 04:42:00,76.5,69.5,29.83,ESE,113,0.0,0.0,79,0.00,,,0.00,WUHU216HW,2013-08-02 09:42:00,
2013-08-02 04:47:00,76.5,69.5,29.83,East,90,0.0,0.0,79,0.00,,,0.00,WUHU216HW,2013-08-02 09:47:00,
2013-08-02 04:52:00,76.5,69.5,29.84,East,90,0.0,0.0,79,0.00,,,0.00,WUHU216HW,2013-08-02 09:52:00,
2013-08-02 04:57:00,76.5,69.5,29.83,North,0,0.0,0.0,79,0.00,,,0.00,WUHU216HW,2013-08-02 09:57:00,
2013-08-02 05:02:00,76.3,69.4,29.84,North,0,0.0,0.0,79,0.00,,,0.00,WUHU216HW,2013-08-02 10:02:00,
2013-08-02 05:07:00,76.3,69.4,29.84,North,0,0.0,0.0,79,0.00,,,0.00,WUHU216HW,2013-08-02 10:07:00,
2013-08-02 05:12:00,76.3,69.4,29.84,North,0,0.0,0.0,79,0.00,,,0.00,WUHU216HW,2013-08-02 10:12:00,
2013-08-02 05:17:00,76.3,69.8,29.84,North,0,0.0,0.0,80,0.00,,,0.00,WUHU216HW,2013-08-02 10:17:00,
2013-08-02 05:22:00,76.0,69.8,29.83,North,0,0.0,0.0,81,0.00,,,0.00,WUHU216HW,2013-08-02 10:22:00,
2013-08-02 05:27:00,76.0,70.1,29.83,SE,135,0.2,0.4,82,0.00,,,0.00,WUHU216HW,2013-08-02 10:27:00,
2013-08-02 05:32:00,76.1,70.3,29.84,ESE,113,0.0,0.4,82,0.00,,,0.00,WUHU216HW,2013-08-02 10:32:00,
2013-08-02 05:37:00,76.3,70.5,29.84,SE,135,0.0,0.4,82,0.00,,,0.00,WUHU216HW,2013-08-02 10:37:00,
2013-08-02 05:42:00,76.9,70.9,29.84,SE,135,1.6,1.6,82,0.00,,,0.00,WUHU216HW,2013-08-02 10:42:00,
2013-08-02 05:47:00,77.0,70.7,29.84,ESE,113,1.8,1.8,81,0.00,,,0.00,WUHU216HW,2013-08-02 10:47:00,
2013-08-02 05:52:00,77.4,71.1,29.84,ESE,113,1.3,1.8,81,0.00,,,0.00,WUHU216HW,2013-08-02 10:52:00,
2013-08-02 05:57:00,77.4,71.1,29.84,SE,135,0.0,1.8,81,0.00,,,0.00,WUHU216HW,2013-08-02 10:57:00,
2013-08-02 06:02:00,77.8,71.5,29.84,ESE,113,0.4,1.8,81,0.00,,,0.00,WUHU216HW,2013-08-02 11:02:00,
2013-08-02 06:07:00,77.8,71.1,29.84,SE,135,0.9,2.0,80,0.00,,,0.00,WUHU216HW,2013-08-02 11:07:00,
2013-08-02 06:12:00,77.9,71.3,29.84,SE,135,2.0,2.0,80,0.00,,,0.00,WUHU216HW,2013-08-02 11:12:00,
2013-08-02 06:17:00,78.1,71.1,29.84,South,180,0.0,2.0,79,0.00,,,0.00,WUHU216HW,2013-08-02 11:17:00,
2013-08-02 06:22:00,78.1,71.1,29.85,SE,135,0.2,1.3,79,0.00,,,0.00,WUHU216HW,2013-08-02 11:22:00,
2013-08-02 06:27:00,77.9,71.3,29.84,SSE,158,0.7,1.1,80,0.00,,,0.00,WUHU216HW,2013-08-02 11:27:00,
2013-08-02 06:32:00,78.1,71.5,29.84,SE,135,0.0,0.7,80,0.00,,,0.00,WUHU216HW,2013-08-02 11:32:00,
2013-08-02 06:37:00,78.1,71.5,29.84,SE,135,1.1,1.3,80,0.00,,,0.00,WUHU216HW,2013-08-02 11:37:00,
2013-08-02 06:42:00,77.9,71.3,29.84,SE,135,1.6,1.8,80,0.00,,,0.00,WUHU216HW,2013-08-02 11:42:00,
2013-08-02 06:47:00,77.9,71.3,29.83,SE,135,1.8,4.0,80,0.00,,,0.00,WUHU216HW,2013-08-02 11:47:00,
2013-08-02 06:52:00,78.1,71.5,29.83,SE,135,0.7,4.0,80,0.00,,,0.00,WUHU216HW,2013-08-02 11:52:00,
2013-08-02 06:57:00,78.1,71.5,29.83,SE,135,0.4,1.1,80,0.00,,,0.00,WUHU216HW,2013-08-02 11:57:00,
2013-08-02 07:02:00,78.1,71.5,29.84,ESE,113,0.0,1.1,80,0.00,,,0.00,WUHU216HW,2013-08-02 12:02:00,
2013-08-02 07:07:00,78.1,71.5,29.84,WSW,248,0.0,0.9,80,0.00,,,0.00,WUHU216HW,2013-08-02 12:07:00,
2013-08-02 07:12:00,78.3,71.6,29.84,SE,135,1.1,1.1,80,0.00,,,0.00,WUHU216HW,2013-08-02 12:12:00,
2013-08-02 07:17:00,78.3,71.6,29.84,SSW,203,0.0,1.1,80,0.00,,,0.00,WUHU216HW,2013-08-02 12:17:00,
2013-08-02 07:22:00,78.5,71.8,29.84,SSW,203,0.0,0.4,80,0.00,,,0.00,WUHU216HW,2013-08-02 12:22:00,
2013-08-02 07:27:00,78.5,71.5,29.84,SSW,203,0.0,0.4,79,0.00,,,0.00,WUHU216HW,2013-08-02 12:27:00,
2013-08-02 07:32:00,78.8,71.8,29.85,SSE,158,0.0,0.7,79,0.00,,,0.00,WUHU216HW,2013-08-02 12:32:00,
2013-08-02 07:37:00,78.8,71.8,29.85,SSW,203,0.0,0.7,79,0.00,,,0.00,WUHU216HW,2013-08-02 12:37:00,
2013-08-02 07:42:00,78.8,71.8,29.85,South,180,1.1,1.1,79,0.00,,,0.00,WUHU216HW,2013-08-02 12:42:00,
2013-08-02 07:47:00,79.0,72.0,29.84,SE,135,0.9,1.1,79,0.00,,,0.00,WUHU216HW,2013-08-02 12:47:00,
2013-08-02 07:52:00,79.4,72.4,29.84,SE,135,0.9,1.1,79,0.00,,,0.00,WUHU216HW,2013-08-02 12:52:00,
2013-08-02 07:57:00,79.9,72.5,29.84,SSE,158,1.3,1.3,78,0.00,,,0.00,WUHU216HW,2013-08-02 12:57:00,
2013-08-02 08:02:00,80.3,72.5,29.85,SE,135,0.4,1.3,77,0.00,,,0.00,WUHU216HW,2013-08-02 13:02:00,
2013-08-02 08:07:00,80.8,72.5,29.85,South,180,0.7,1.6,76,0.00,,,0.00,WUHU216HW,2013-08-02 13:07:00,
2013-08-02 08:12:00,81.4,72.7,29.85,South,180,1.1,1.6,75,0.00,,,0.00,WUHU216HW,2013-08-02 13:12:00,
2013-08-02 08:17:00,81.7,72.6,29.85,SSW,203,0.0,2.5,74,0.00,,,0.00,WUHU216HW,2013-08-02 13:17:00,
2013-08-02 08:23:00,82.1,73.0,29.85,SSW,203,1.1,2.5,74,0.00,,,0.00,WUHU216HW,2013-08-02 13:23:00,
2013-08-02 08:28:00,82.6,72.6,29.86,SSW,203,1.3,2.2,72,0.00,,,0.00,WUHU216HW,2013-08-02 13:28:00,
2013-08-02 08:33:00,83.2,72.8,29.86,SE,135,0.4,2.2,71,0.00,,,0.00,WUHU216HW,2013-08-02 13:33:00,
2013-08-02 08:37:00,83.5,72.7,29.86,South,180,1.3,2.2,70,0.00,,,0.00,WUHU216HW,2013-08-02 13:37:00,
2013-08-02 08:42:00,84.1,72.4,29.86,SE,135,1.1,1.8,68,0.00,,,0.00,WUHU216HW,2013-08-02 13:42:00,
2013-08-02 08:48:00,84.4,72.3,29.86,SW,225,1.1,2.0,67,0.00,,,0.00,WUHU216HW,2013-08-02 13:48:00,
2013-08-02 08:53:00,84.8,72.6,29.86,SSE,158,2.5,3.8,67,0.00,,,0.00,WUHU216HW,2013-08-02 13:53:00,
2013-08-02 08:58:00,85.0,72.4,29.86,SW,225,2.7,3.8,66,0.00,,,0.00,WUHU216HW,2013-08-02 13:58:00,
2013-08-02 09:03:00,85.3,72.2,29.86,SW,225,0.7,3.1,65,0.00,,,0.00,WUHU216HW,2013-08-02 14:03:00,
2013-08-02 09:08:00,85.9,71.8,29.86,WSW,248,1.8,3.1,63,0.00,,,0.00,WUHU216HW,2013-08-02 14:08:00,
2013-08-02 09:12:00,86.2,72.2,29.86,South,180,1.1,3.1,63,0.00,,,0.00,WUHU216HW,2013-08-02 14:12:00,
2013-08-02 09:18:00,86.6,72.5,29.86,SSW,203,2.0,3.1,63,0.00,,,0.00,WUHU216HW,2013-08-02 14:18:00,
2013-08-02 09:22:00,86.8,72.2,29.86,SSW,203,1.6,4.0,62,0.00,,,0.00,WUHU216HW,2013-08-02 14:22:00,
2013-08-02 09:23:00,86.8,71.7,29.86,NE,45,3.6,4.0,61,0.00,,,0.00,WUHU216HW,2013-08-02 14:23:00,
2013-08-02 09:24:00,86.8,72.2,29.86,ENE,68,1.3,4.0,62,0.00,,,0.00,WUHU216HW,2013-08-02 14:24:00,
2013-08-02 09:25:00,86.8,72.2,29.86,SSW,203,1.1,4.0,62,0.00,,,0.00,WUHU216HW,2013-08-02 14:25:00,
2013-08-02 09:26:00,86.8,72.2,29.86,SSW,203,3.4,4.0,62,0.00,,,0.00,WUHU216HW,2013-08-02 14:26:00,
2013-08-02 09:27:00,86.9,71.9,29.86,South,180,2.7,4.0,61,0.00,,,0.00,WUHU216HW,2013-08-02 14:27:00,
2013-08-02 09:28:00,86.9,71.9,29.86,SSW,203,1.8,4.0,61,0.00,,,0.00,WUHU216HW,2013-08-02 14:28:00,
2013-08-02 09:29:00,86.9,71.9,29.86,SSW,203,3.4,3.6,61,0.00,,,0.00,WUHU216HW,2013-08-02 14:29:00,
2013-08-02 09:30:00,86.9,71.9,29.86,SSW,203,2.7,3.6,61,0.00,,,0.00,WUHU216HW,2013-08-02 14:30:00,
2013-08-02 09:31:00,87.1,72.1,29.86,WSW,248,2.9,3.6,61,0.00,,,0.00,WUHU216HW,2013-08-02 14:31:00,
2013-08-02 09:32:00,87.1,71.6,29.86,SW,225,2.5,3.6,60,0.00,,,0.00,WUHU216HW,2013-08-02 14:32:00,
2013-08-02 09:33:00,87.3,72.3,29.86,SSW,203,1.8,3.4,61,0.00,,,0.00,WUHU216HW,2013-08-02 14:33:00,
2013-08-02 09:34:00,87.5,72.0,29.86,SW,225,1.8,3.4,60,0.00,,,0.00,WUHU216HW,2013-08-02 14:34:00,
2013-08-02 09:35:00,87.5,72.5,29.86,SW,225,3.4,3.4,61,0.00,,,0.00,WUHU216HW,2013-08-02 14:35:00,
2013-08-02 09:36:00,87.5,72.0,29.86,SSW,203,3.4,3.4,60,0.00,,,0.00,WUHU216HW,2013-08-02 14:36:00,
2013-08-02 09:37:00,87.7,71.6,29.86,SW,225,1.6,3.4,59,0.00,,,0.00,WUHU216HW,2013-08-02 14:37:00,
2013-08-02 09:38:00,87.8,72.4,29.86,SW,225,2.5,3.4,60,0.00,,,0.00,WUHU216HW,2013-08-02 14:38:00,
2013-08-02 09:39:00,87.8,72.4,29.86,SW,225,1.1,3.4,60,0.00,,,0.00,WUHU216HW,2013-08-02 14:39:00,
2013-08-02 09:40:00,88.0,72.6,29.86,SW,225,1.1,3.4,60,0.00,,,0.00,WUHU216HW,2013-08-02 14:40:00,
2013-08-02 09:41:00,88.2,72.2,29.86,SW,225,2.0,3.4,59,0.00,,,0.00,WUHU216HW,2013-08-02 14:41:00,
2013-08-02 09:42:00,88.2,72.2,29.86,SW,225,1.6,3.4,59,0.00,,,0.00,WUHU216HW,2013-08-02 14:42:00,
2013-08-02 09:43:00,88.4,72.3,29.86,WSW,248,2.9,3.4,59,0.00,,,0.00,WUHU216HW,2013-08-02 14:43:00,
2013-08-02 09:44:00,88.4,71.7,29.86,WSW,248,1.8,3.4,58,0.00,,,0.00,WUHU216HW,2013-08-02 14:44:00,
2013-08-02 09:45:00,88.6,72.5,29.86,SSE,158,2.9,3.4,59,0.00,,,0.00,WUHU216HW,2013-08-02 14:45:00,
2013-08-02 09:46:00,88.7,72.1,29.86,SSW,203,0.4,2.9,58,0.00,,,0.00,WUHU216HW,2013-08-02 14:46:00,
2013-08-02 09:47:00,88.7,71.6,29.85,SSW,203,1.3,2.9,57,0.00,,,0.00,WUHU216HW,2013-08-02 14:47:00,
2013-08-02 09:48:00,88.7,71.6,29.86,SW,225,1.6,2.9,57,0.00,,,0.00,WUHU216HW,2013-08-02 14:48:00,
2013-08-02 09:49:00,88.7,71.6,29.86,SE,135,1.8,2.9,57,0.00,,,0.00,WUHU216HW,2013-08-02 14:49:00,
2013-08-02 09:50:00,88.9,71.7,29.86,WSW,248,0.4,2.9,57,0.00,,,0.00,WUHU216HW,2013-08-02 14:50:00,
2013-08-02 09:51:00,88.9,71.7,29.86,South,180,2.5,2.9,57,0.00,,,0.00,WUHU216HW,2013-08-02 14:51:00,
2013-08-02 09:52:00,88.9,71.7,29.85,SSE,158,1.8,2.9,57,0.00,,,0.00,WUHU216HW,2013-08-02 14:52:00,
2013-08-02 09:53:00,89.1,71.9,29.86,SE,135,1.3,2.9,57,0.00,,,0.00,WUHU216HW,2013-08-02 14:53:00,
2013-08-02 09:54:00,89.3,72.0,29.86,SSW,203,1.6,2.9,57,0.00,,,0.00,WUHU216HW,2013-08-02 14:54:00,
2013-08-02 09:55:00,89.3,72.5,29.85,SSW,203,3.8,3.8,58,0.00,,,0.00,WUHU216HW,2013-08-02 14:55:00,
2013-08-02 09:56:00,89.5,72.2,29.86,SW,225,2.7,3.8,57,0.00,,,0.00,WUHU216HW,2013-08-02 14:56:00,
2013-08-02 09:57:00,89.6,72.4,29.86,South,180,2.0,3.8,57,0.00,,,0.00,WUHU216HW,2013-08-02 14:57:00,
2013-08-02 09:58:00,90.0,72.2,29.85,SE,135,2.5,3.8,56,0.00,,,0.00,WUHU216HW,2013-08-02 14:58:00,
2013-08-02 09:59:00,90.0,72.2,29.86,SW,225,0.9,3.8,56,0.00,,,0.00,WUHU216HW,2013-08-02 14:59:00,
2013-08-02 10:00:00,90.2,72.3,29.86,WSW,248,1.8,3.8,56,0.00,,,0.00,WUHU216HW,2013-08-02 15:00:00,
2013-08-02 10:01:00,90.2,71.7,29.86,SW,225,1.3,3.8,55,0.00,,,0.00,WUHU216HW,2013-08-02 15:01:00,
2013-08-02 10:02:00,90.4,72.5,29.86,SW,225,2.5,3.8,56,0.00,,,0.00,WUHU216HW,2013-08-02 15:02:00,
2013-08-02 10:03:00,90.4,71.9,29.86,SSW,203,3.6,3.8,55,0.00,,,0.00,WUHU216HW,2013-08-02 15:03:00,
2013-08-02 10:04:00,90.7,72.8,29.86,SSW,203,2.5,3.8,56,0.00,,,0.00,WUHU216HW,2013-08-02 15:04:00,
2013-08-02 10:05:00,90.7,72.8,29.86,South,180,3.1,3.8,56,0.00,,,0.00,WUHU216HW,2013-08-02 15:05:00,
2013-08-02 10:06:00,90.9,72.5,29.86,SSW,203,2.5,3.6,55,0.00,,,0.00,WUHU216HW,2013-08-02 15:06:00,
2013-08-02 10:07:00,90.9,72.5,29.86,WSW,248,1.8,3.6,55,0.00,,,0.00,WUHU216HW,2013-08-02 15:07:00,
2013-08-02 10:08:00,91.1,72.5,29.86,SSW,203,2.2,3.6,55,0.00,,,0.00,WUHU216HW,2013-08-02 15:08:00,
2013-08-02 10:09:00,91.1,72.0,29.86,WNW,293,3.4,3.6,54,0.00,,,0.00,WUHU216HW,2013-08-02 15:09:00,
2013-08-02 10:10:00,91.3,72.2,29.86,SW,225,4.3,4.3,54,0.00,,,0.00,WUHU216HW,2013-08-02 15:10:00,
2013-08-02 10:11:00,91.3,71.6,29.86,SW,225,1.8,4.3,53,0.00,,,0.00,WUHU216HW,2013-08-02 15:11:00,
2013-08-02 10:12:00,91.3,71.6,29.86,SSW,203,3.4,4.3,53,0.00,,,0.00,WUHU216HW,2013-08-02 15:12:00,
2013-08-02 10:13:00,91.3,71.6,29.86,SSW,203,4.7,4.7,53,0.00,,,0.00,WUHU216HW,2013-08-02 15:13:00,
2013-08-02 10:14:00,91.3,71.1,29.86,SW,225,1.6,4.7,52,0.00,,,0.00,WUHU216HW,2013-08-02 15:14:00,
2013-08-02 10:15:00,91.4,72.4,29.86,SSW,203,1.6,4.7,54,0.00,,,0.00,WUHU216HW,2013-08-02 15:15:00,
2013-08-02 10:16:00,91.4,71.3,29.86,SE,135,1.1,4.7,52,0.00,,,0.00,WUHU216HW,2013-08-02 15:16:00,
2013-08-02 10:17:00,91.4,71.3,29.86,SW,225,1.1,4.7,52,0.00,,,0.00,WUHU216HW,2013-08-02 15:17:00,
2013-08-02 10:18:00,91.4,71.3,29.86,SSW,203,3.8,4.7,52,0.00,,,0.00,WUHU216HW,2013-08-02 15:18:00,
2013-08-02 10:19:00,91.6,72.0,29.86,East,90,2.5,4.7,53,0.00,,,0.00,WUHU216HW,2013-08-02 15:19:00,
2013-08-02 10:20:00,91.6,72.0,29.86,SSE,158,2.7,4.7,53,0.00,,,0.00,WUHU216HW,2013-08-02 15:20:00,
2013-08-02 10:21:00,91.6,72.0,29.86,West,270,1.8,4.7,53,0.00,,,0.00,WUHU216HW,2013-08-02 15:21:00,
2013-08-02 10:22:00,91.6,71.5,29.86,SSW,203,2.9,4.7,52,0.00,,,0.00,WUHU216HW,2013-08-02 15:22:00,
2013-08-02 10:23:00,91.6,71.5,29.86,SSE,158,1.3,3.8,52,0.00,,,0.00,WUHU216HW,2013-08-02 15:23:00,
2013-08-02 10:24:00,91.8,71.7,29.86,SSW,203,3.4,3.8,52,0.00,,,0.00,WUHU216HW,2013-08-02 15:24:00,
2013-08-02 10:25:00,92.0,71.2,29.86,South,180,2.0,3.8,51,0.00,,,0.00,WUHU216HW,2013-08-02 15:25:00,
2013-08-02 10:26:00,92.0,71.8,29.86,SW,225,3.4,3.8,52,0.00,,,0.00,WUHU216HW,2013-08-02 15:26:00,
2013-08-02 10:27:00,92.2,71.9,29.86,SSW,203,2.5,3.8,52,0.00,,,0.00,WUHU216HW,2013-08-02 15:27:00,
2013-08-02 10:28:00,92.2,71.9,29.86,SW,225,3.4,3.4,52,0.00,,,0.00,WUHU216HW,2013-08-02 15:28:00,
2013-08-02 10:29:00,92.3,72.1,29.86,SSW,203,1.8,3.4,52,0.00,,,0.00,WUHU216HW,2013-08-02 15:29:00,
2013-08-02 10:30:00,92.5,71.7,29.86,South,180,1.6,3.4,51,0.00,,,0.00,WUHU216HW,2013-08-02 15:30:00,
2013-08-02 10:31:00,92.5,71.7,29.86,SE,135,1.8,3.4,51,0.00,,,0.00,WUHU216HW,2013-08-02 15:31:00,
2013-08-02 10:32:00,92.5,71.2,29.86,SW,225,1.3,3.4,50,0.00,,,0.00,WUHU216HW,2013-08-02 15:32:00,
2013-08-02 10:33:00,92.5,71.2,29.86,SW,225,1.8,3.4,50,0.00,,,0.00,WUHU216HW,2013-08-02 15:33:00,
2013-08-02 10:34:00,92.5,71.2,29.86,SSW,203,1.3,3.4,50,0.00,,,0.00,WUHU216HW,2013-08-02 15:34:00,
2013-08-02 10:35:00,92.7,71.4,29.86,SW,225,1.8,3.4,50,0.00,,,0.00,WUHU216HW,2013-08-02 15:35:00,
2013-08-02 10:36:00,92.9,72.1,29.86,SSE,158,1.8,3.4,51,0.00,,,0.00,WUHU216HW,2013-08-02 15:36:00,
2013-08-02 10:37:00,92.9,71.5,29.86,SSW,203,1.1,3.4,50,0.00,,,0.00,WUHU216HW,2013-08-02 15:37:00,
2013-08-02 10:38:00,92.9,71.5,29.86,SE,135,4.0,4.0,50,0.00,,,0.00,WUHU216HW,2013-08-02 15:38:00,
2013-08-02 10:39:00,92.9,72.1,29.86,SE,135,3.6,4.0,51,0.00,,,0.00,WUHU216HW,2013-08-02 15:39:00,
2013-08-02 10:40:00,93.1,71.0,29.86,SE,135,3.4,4.0,49,0.00,,,0.00,WUHU216HW,2013-08-02 15:40:00,
2013-08-02 10:41:00,93.1,71.0,29.86,SE,135,0.4,4.0,49,0.00,,,0.00,WUHU216HW,2013-08-02 15:41:00,
2013-08-02 10:42:00,93.2,71.8,29.86,SSE,158,1.1,4.0,50,0.00,,,0.00,WUHU216HW,2013-08-02 15:42:00,
2013-08-02 10:43:00,93.2,71.8,29.86,SW,225,1.6,4.0,50,0.00,,,0.00,WUHU216HW,2013-08-02 15:43:00,
2013-08-02 10:44:00,93.4,72.0,29.86,ESE,113,1.3,4.0,50,0.00,,,0.00,WUHU216HW,2013-08-02 15:44:00,
2013-08-02 10:45:00,93.6,72.2,29.86,ESE,113,3.8,4.0,50,0.00,,,0.00,WUHU216HW,2013-08-02 15:45:00,
2013-08-02 10:46:00,93.6,71.6,29.86,South,180,4.5,4.5,49,0.00,,,0.00,WUHU216HW,2013-08-02 15:46:00,
2013-08-02 10:47:00,93.8,71.7,29.86,SE,135,2.5,4.5,49,0.00,,,0.00,WUHU216HW,2013-08-02 15:47:00,
2013-08-02 10:48:00,93.8,71.7,29.86,SSW,203,1.3,4.5,49,0.00,,,0.00,WUHU216HW,2013-08-02 15:48:00,
2013-08-02 10:49:00,93.8,71.7,29.86,SSW,203,2.5,4.5,49,0.00,,,0.00,WUHU216HW,2013-08-02 15:49:00,
2013-08-02 10:50:00,93.8,71.7,29.86,SSW,203,0.9,4.5,49,0.00,,,0.00,WUHU216HW,2013-08-02 15:50:00,
2013-08-02 10:51:00,94.0,72.5,29.86,ESE,113,1.3,4.5,50,0.00,,,0.00,WUHU216HW,2013-08-02 15:51:00,
2013-08-02 10:52:00,94.1,72.7,29.86,ESE,113,1.1,4.5,50,0.00,,,0.00,WUHU216HW,2013-08-02 15:52:00,
2013-08-02 10:53:00,94.1,71.4,29.86,SSE,158,2.7,4.5,48,0.00,,,0.00,WUHU216HW,2013-08-02 15:53:00,
2013-08-02 10:54:00,94.1,72.1,29.86,SSW,203,2.0,4.5,49,0.00,,,0.00,WUHU216HW,2013-08-02 15:54:00,
2013-08-02 10:55:00,94.1,70.7,29.86,WSW,248,2.5,4.5,47,0.00,,,0.00,WUHU216HW,2013-08-02 15:55:00,
2013-08-02 10:56:00,94.0,70.6,29.86,SSW,203,1.3,2.7,47,0.00,,,0.00,WUHU216HW,2013-08-02 15:56:00,
2013-08-02 10:57:00,94.0,71.2,29.86,SSE,158,0.9,2.7,48,0.00,,,0.00,WUHU216HW,2013-08-02 15:57:00,
2013-08-02 10:58:00,94.0,71.2,29.86,SSW,203,1.3,2.7,48,0.00,,,0.00,WUHU216HW,2013-08-02 15:58:00,
2013-08-02 10:59:00,94.0,71.2,29.86,SSE,158,2.7,2.7,48,0.00,,,0.00,WUHU216HW,2013-08-02 15:59:00,
2013-08-02 11:00:00,94.1,71.4,29.86,SW,225,2.5,2.7,48,0.00,,,0.00,WUHU216HW,2013-08-02 16:00:00,
2013-08-02 11:01:00,94.1,71.4,29.86,SE,135,1.8,2.7,48,0.00,,,0.00,WUHU216HW,2013-08-02 16:01:00,
2013-08-02 11:02:00,94.3,71.6,29.87,SE,135,2.2,2.7,48,0.00,,,0.00,WUHU216HW,2013-08-02 16:02:00,
2013-08-02 11:03:00,94.3,71.6,29.86,SSE,158,4.7,4.7,48,0.00,,,0.00,WUHU216HW,2013-08-02 16:03:00,
2013-08-02 11:04:00,94.3,70.3,29.86,SE,135,4.3,4.7,46,0.00,,,0.00,WUHU216HW,2013-08-02 16:04:00,
2013-08-02 11:05:00,94.3,70.9,29.86,SE,135,2.5,4.7,47,0.00,,,0.00,WUHU216HW,2013-08-02 16:05:00,
2013-08-02 11:06:00,94.3,70.9,29.86,SE,135,1.8,4.7,47,0.00,,,0.00,WUHU216HW,2013-08-02 16:06:00,
2013-08-02 11:07:00,94.3,70.9,29.86,SE,135,2.5,4.7,47,0.00,,,0.00,WUHU216HW,2013-08-02 16:07:00,
2013-08-02 11:08:00,94.3,71.6,29.86,SW,225,1.6,4.7,48,0.00,,,0.00,WUHU216HW,2013-08-02 16:08:00,
2013-08-02 11:09:00,94.3,70.9,29.86,SW,225,1.8,4.7,47,0.00,,,0.00,WUHU216HW,2013-08-02 16:09:00,
2013-08-02 11:10:00,94.3,71.6,29.87,WSW,248,3.6,4.7,48,0.00,,,0.00,WUHU216HW,2013-08-02 16:10:00,
2013-08-02 11:11:00,94.5,71.1,29.87,SSW,203,2.5,4.7,47,0.00,,,0.00,WUHU216HW,2013-08-02 16:11:00,
2013-08-02 11:12:00,94.7,71.3,29.87,SW,225,1.6,4.7,47,0.00,,,0.00,WUHU216HW,2013-08-02 16:12:00,
2013-08-02 11:13:00,94.9,71.5,29.87,SSW,203,3.6,4.3,47,0.00,,,0.00,WUHU216HW,2013-08-02 16:13:00,
2013-08-02 11:14:00,94.9,70.7,29.87,SSW,203,1.8,3.6,46,0.00,,,0.00,WUHU216HW,2013-08-02 16:14:00,
2013-08-02 11:15:00,95.0,70.9,29.87,SE,135,1.1,3.6,46,0.00,,,0.00,WUHU216HW,2013-08-02 16:15:00,
2013-08-02 11:16:00,95.0,70.9,29.86,SE,135,5.4,5.4,46,0.00,,,0.00,WUHU216HW,2013-08-02 16:16:00,
2013-08-02 11:17:00,95.0,70.9,29.86,SW,225,1.8,5.4,46,0.00,,,0.00,WUHU216HW,2013-08-02 16:17:00,
2013-08-02 11:18:00,95.0,70.9,29.87,SW,225,4.0,5.4,46,0.00,,,0.00,WUHU216HW,2013-08-02 16:18:00,
2013-08-02 11:19:00,95.0,70.3,29.86,ESE,113,2.2,5.4,45,0.00,,,0.00,WUHU216HW,2013-08-02 16:19:00,
2013-08-02 11:20:00,95.0,70.3,29.87,SSW,203,1.6,5.4,45,0.00,,,0.00,WUHU216HW,2013-08-02 16:20:00,
2013-08-02 11:21:00,95.0,70.9,29.87,East,90,2.0,5.4,46,0.00,,,0.00,WUHU216HW,2013-08-02 16:21:00,
2013-08-02 11:22:00,95.0,70.9,29.87,SSW,203,3.6,5.4,46,0.00,,,0.00,WUHU216HW,2013-08-02 16:22:00,
2013-08-02 11:23:00,95.2,70.5,29.87,SE,135,2.5,5.4,45,0.00,,,0.00,WUHU216HW,2013-08-02 16:23:00,
2013-08-02 11:24:00,95.4,71.3,29.87,SSW,203,2.0,5.4,46,0.00,,,0.00,WUHU216HW,2013-08-02 16:24:00,
2013-08-02 11:25:00,95.4,71.3,29.87,SSW,203,2.9,5.4,46,0.00,,,0.00,WUHU216HW,2013-08-02 16:25:00,
2013-08-02 11:26:00,95.4,71.3,29.87,SW,225,4.0,4.0,46,0.00,,,0.00,WUHU216HW,2013-08-02 16:26:00,
2013-08-02 11:27:00,95.8,71.7,29.87,SSW,203,4.0,4.0,46,0.00,,,0.00,WUHU216HW,2013-08-02 16:27:00,
2013-08-02 11:28:00,95.8,71.7,29.87,SSW,203,1.8,4.0,46,0.00,,,0.00,WUHU216HW,2013-08-02 16:28:00,
2013-08-02 11:29:00,95.9,72.5,29.87,SSW,203,1.6,4.0,47,0.00,,,0.00,WUHU216HW,2013-08-02 16:29:00,
2013-08-02 11:30:00,96.1,71.3,29.87,SSE,158,3.4,4.0,45,0.00,,,0.00,WUHU216HW,2013-08-02 16:30:00,
2013-08-02 11:31:00,96.1,71.3,29.87,ESE,113,2.5,4.0,45,0.00,,,0.00,WUHU216HW,2013-08-02 16:31:00,
2013-08-02 11:32:00,96.1,71.9,29.87,SSE,158,1.6,4.0,46,0.00,,,0.00,WUHU216HW,2013-08-02 16:32:00,
2013-08-02 11:33:00,96.1,70.6,29.87,SSW,203,3.4,4.0,44,0.00,,,0.00,WUHU216HW,2013-08-02 16:33:00,
2013-08-02 11:34:00,96.1,70.6,29.87,SSW,203,2.0,4.0,44,0.00,,,0.00,WUHU216HW,2013-08-02 16:34:00,
2013-08-02 11:35:00,96.1,71.3,29.87,SSE,158,1.1,4.0,45,0.00,,,0.00,WUHU216HW,2013-08-02 16:35:00,
2013-08-02 11:36:00,96.3,70.7,29.87,SE,135,6.3,6.3,44,0.00,,,0.00,WUHU216HW,2013-08-02 16:36:00,
2013-08-02 11:37:00,96.1,70.6,29.87,SSE,158,8.9,8.9,44,0.00,,,0.00,WUHU216HW,2013-08-02 16:37:00,
2013-08-02 11:38:00,96.1,71.3,29.87,ENE,68,1.8,8.9,45,0.00,,,0.00,WUHU216HW,2013-08-02 16:38:00,
2013-08-02 11:39:00,96.1,71.3,29.87,SSE,158,2.0,8.9,45,0.00,,,0.00,WUHU216HW,2013-08-02 16:39:00,
2013-08-02 11:40:00,96.1,71.3,29.87,SSE,158,2.9,8.9,45,0.00,,,0.00,WUHU216HW,2013-08-02 16:40:00,
2013-08-02 11:41:00,96.3,70.1,29.87,SSE,158,2.5,8.9,43,0.00,,,0.00,WUHU216HW,2013-08-02 16:41:00,
2013-08-02 11:42:00,96.3,70.7,29.87,ESE,113,6.0,8.9,44,0.00,,,0.00,WUHU216HW,2013-08-02 16:42:00,
2013-08-02 11:43:00,96.1,71.3,29.87,SSW,203,1.6,8.9,45,0.00,,,0.00,WUHU216HW,2013-08-02 16:43:00,
2013-08-02 11:44:00,96.1,71.3,29.87,SSE,158,3.1,8.9,45,0.00,,,0.00,WUHU216HW,2013-08-02 16:44:00,
2013-08-02 11:45:00,96.3,70.7,29.87,ESE,113,4.5,8.9,44,0.00,,,0.00,WUHU216HW,2013-08-02 16:45:00,
2013-08-02 11:46:00,96.5,71.6,29.87,ESE,113,4.7,8.9,45,0.00,,,0.00,WUHU216HW,2013-08-02 16:46:00,
2013-08-02 11:47:00,96.5,71.6,29.87,ESE,113,4.5,6.0,45,0.00,,,0.00,WUHU216HW,2013-08-02 16:47:00,
2013-08-02 11:48:00,96.5,70.3,29.87,SSE,158,8.3,8.3,43,0.00,,,0.00,WUHU216HW,2013-08-02 16:48:00,
2013-08-02 11:49:00,96.5,70.3,29.87,SE,135,2.7,8.3,43,0.00,,,0.00,WUHU216HW,2013-08-02 16:49:00,
2013-08-02 11:50:00,96.5,71.6,29.87,SE,135,2.2,8.3,45,0.00,,,0.00,WUHU216HW,2013-08-02 16:50:00,
2013-08-02 11:51:00,96.5,70.3,29.87,SSE,158,3.6,8.3,43,0.00,,,0.00,WUHU216HW,2013-08-02 16:51:00,
2013-08-02 11:52:00,96.7,70.4,29.87,South,180,4.5,8.3,43,0.00,,,0.00,WUHU216HW,2013-08-02 16:52:00,
2013-08-02 11:53:00,96.7,70.4,29.87,SSE,158,1.6,8.3,43,0.00,,,0.00,WUHU216HW,2013-08-02 16:53:00,
2013-08-02 11:54:00,96.8,70.6,29.87,SSE,158,2.0,8.3,43,0.00,,,0.00,WUHU216HW,2013-08-02 16:54:00,
2013-08-02 11:55:00,96.7,71.1,29.87,WSW,248,2.7,8.3,44,0.00,,,0.00,WUHU216HW,2013-08-02 16:55:00,
2013-08-02 11:56:00,96.8,70.6,29.87,South,180,3.1,8.3,43,0.00,,,0.00,WUHU216HW,2013-08-02 16:56:00,
2013-08-02 11:57:00,96.8,70.6,29.87,SSW,203,1.6,8.3,43,0.00,,,0.00,WUHU216HW,2013-08-02 16:57:00,
2013-08-02 11:58:00,96.8,71.3,29.87,SSE,158,1.6,4.5,44,0.00,,,0.00,WUHU216HW,2013-08-02 16:58:00,
2013-08-02 11:59:00,96.8,70.6,29.87,South,180,0.9,4.5,43,0.00,,,0.00,WUHU216HW,2013-08-02 16:59:00,
2013-08-02 12:00:00,96.8,70.6,29.87,South,180,0.9,4.5,43,0.00,,,0.00,WUHU216HW,2013-08-02 17:00:00,
2013-08-02 12:01:00,96.8,70.6,29.87,SW,225,2.7,4.5,43,0.00,,,0.00,WUHU216HW,2013-08-02 17:01:00,
2013-08-02 12:02:00,97.0,71.4,29.87,SSE,158,2.5,4.5,44,0.00,,,0.00,WUHU216HW,2013-08-02 17:02:00,
2013-08-02 12:03:00,97.2,70.9,29.87,South,180,3.4,3.4,43,0.00,,,0.00,WUHU216HW,2013-08-02 17:03:00,
2013-08-02 12:04:00,97.2,70.9,29.87,SE,135,2.5,3.4,43,0.00,,,0.00,WUHU216HW,2013-08-02 17:04:00,
2013-08-02 12:05:00,97.2,70.9,29.87,SSE,158,4.0,4.0,43,0.00,,,0.00,WUHU216HW,2013-08-02 17:05:00,
2013-08-02 12:06:00,97.4,71.1,29.87,South,180,1.8,4.0,43,0.00,,,0.00,WUHU216HW,2013-08-02 17:06:00,
2013-08-02 12:07:00,97.4,71.1,29.87,SSE,158,1.3,4.0,43,0.00,,,0.00,WUHU216HW,2013-08-02 17:07:00,
2013-08-02 12:08:00,97.4,71.1,29.87,SE,135,2.0,4.0,43,0.00,,,0.00,WUHU216HW,2013-08-02 17:08:00,
2013-08-02 12:09:00,97.6,70.6,29.87,SW,225,1.1,4.0,42,0.00,,,0.00,WUHU216HW,2013-08-02 17:09:00,
2013-08-02 12:10:00,97.6,70.6,29.87,ESE,113,2.5,4.0,42,0.00,,,0.00,WUHU216HW,2013-08-02 17:10:00,
2013-08-02 12:11:00,97.6,70.6,29.87,SSE,158,2.9,4.0,42,0.00,,,0.00,WUHU216HW,2013-08-02 17:11:00,
2013-08-02 12:12:00,97.6,69.9,29.87,SE,135,1.6,4.0,41,0.00,,,0.00,WUHU216HW,2013-08-02 17:12:00,
2013-08-02 12:13:00,97.6,70.6,29.87,SE,135,6.0,6.0,42,0.00,,,0.00,WUHU216HW,2013-08-02 17:13:00,
2013-08-02 12:14:00,97.6,69.9,29.87,SE,135,3.1,6.0,41,0.00,,,0.00,WUHU216HW,2013-08-02 17:14:00,
2013-08-02 12:15:00,97.4,70.4,29.87,SE,135,2.5,6.0,42,0.00,,,0.00,WUHU216HW,2013-08-02 17:15:00,
2013-08-02 12:16:00,97.6,70.6,29.87,ESE,113,6.3,6.3,42,0.00,,,0.00,WUHU216HW,2013-08-02 17:16:00,
2013-08-02 12:17:00,97.4,70.4,29.87,SSE,158,3.4,6.3,42,0.00,,,0.00,WUHU216HW,2013-08-02 17:17:00,
2013-08-02 12:18:00,97.6,70.6,29.86,SSE,158,2.0,6.3,42,0.00,,,0.00,WUHU216HW,2013-08-02 17:18:00,
2013-08-02 12:19:00,97.6,71.2,29.87,ESE,113,4.0,6.3,43,0.00,,,0.00,WUHU216HW,2013-08-02 17:19:00,
2013-08-02 12:20:00,97.6,71.9,29.86,SE,135,4.0,6.3,44,0.00,,,0.00,WUHU216HW,2013-08-02 17:20:00,
2013-08-02 12:21:00,97.6,70.6,29.86,ESE,113,7.6,7.6,42,0.00,,,0.00,WUHU216HW,2013-08-02 17:21:00,
2013-08-02 12:22:00,97.6,70.6,29.86,ESE,113,6.9,7.6,42,0.00,,,0.00,WUHU216HW,2013-08-02 17:22:00,
2013-08-02 12:23:00,97.7,70.8,29.86,SSW,203,2.5,7.6,42,0.00,,,0.00,WUHU216HW,2013-08-02 17:23:00,
2013-08-02 12:24:00,97.9,70.9,29.86,SW,225,2.2,7.6,42,0.00,,,0.00,WUHU216HW,2013-08-02 17:24:00,
2013-08-02 12:25:00,97.9,70.9,29.86,SW,225,1.3,7.6,42,0.00,,,0.00,WUHU216HW,2013-08-02 17:25:00,
2013-08-02 12:26:00,98.3,71.2,29.86,SSW,203,3.8,7.6,42,0.00,,,0.00,WUHU216HW,2013-08-02 17:26:00,
2013-08-02 12:27:00,98.5,70.8,29.86,ESE,113,3.4,7.6,41,0.00,,,0.00,WUHU216HW,2013-08-02 17:27:00,
2013-08-02 12:28:00,98.6,70.8,29.86,SSW,203,1.8,7.6,41,0.00,,,0.00,WUHU216HW,2013-08-02 17:28:00,
2013-08-02 12:29:00,98.6,71.6,29.86,SSE,158,3.4,7.6,42,0.00,,,0.00,WUHU216HW,2013-08-02 17:29:00,
2013-08-02 12:30:00,98.8,71.0,29.86,WSW,248,1.8,7.6,41,0.00,,,0.00,WUHU216HW,2013-08-02 17:30:00,
2013-08-02 12:31:00,99.0,69.7,29.86,SW,225,5.4,6.9,39,0.00,,,0.00,WUHU216HW,2013-08-02 17:31:00,
2013-08-02 12:32:00,99.0,70.6,29.86,SSW,203,1.1,5.4,40,0.00,,,0.00,WUHU216HW,2013-08-02 17:32:00,
2013-08-02 12:33:00,99.0,70.6,29.86,SSE,158,2.5,5.4,40,0.00,,,0.00,WUHU216HW,2013-08-02 17:33:00,
2013-08-02 12:34:00,99.0,70.6,29.86,SSW,203,2.5,5.4,40,0.00,,,0.00,WUHU216HW,2013-08-02 17:34:00,
2013-08-02 12:35:00,99.0,70.6,29.86,SSE,158,2.5,5.4,40,0.00,,,0.00,WUHU216HW,2013-08-02 17:35:00,
2013-08-02 12:36:00,99.0,70.6,29.86,SSE,158,2.5,5.4,40,0.00,,,0.00,WUHU216HW,2013-08-02 17:36:00,
2013-08-02 12:37:00,99.0,70.6,29.86,WSW,248,2.5,5.4,40,0.00,,,0.00,WUHU216HW,2013-08-02 17:37:00,
2013-08-02 12:38:00,99.0,71.2,29.86,East,90,3.4,5.4,41,0.00,,,0.00,WUHU216HW,2013-08-02 17:38:00,
2013-08-02 12:39:00,99.0,70.6,29.86,SSE,158,3.4,5.4,40,0.00,,,0.00,WUHU216HW,2013-08-02 17:39:00,
2013-08-02 12:40:00,99.2,70.7,29.86,East,90,4.7,5.4,40,0.00,,,0.00,WUHU216HW,2013-08-02 17:40:00,
2013-08-02 12:41:00,99.0,69.7,29.86,SE,135,6.0,6.0,39,0.00,,,0.00,WUHU216HW,2013-08-02 17:41:00,
2013-08-02 12:42:00,99.0,70.6,29.86,ESE,113,3.1,6.0,40,0.00,,,0.00,WUHU216HW,2013-08-02 17:42:00,
2013-08-02 12:43:00,99.0,70.6,29.86,SSE,158,1.8,6.0,40,0.00,,,0.00,WUHU216HW,2013-08-02 17:43:00,
2013-08-02 12:44:00,98.8,70.4,29.86,WSW,248,1.3,6.0,40,0.00,,,0.00,WUHU216HW,2013-08-02 17:44:00,
2013-08-02 12:45:00,98.8,70.4,29.86,ESE,113,6.3,6.3,40,0.00,,,0.00,WUHU216HW,2013-08-02 17:45:00,
2013-08-02 12:46:00,98.8,71.0,29.86,SE,135,1.8,6.3,41,0.00,,,0.00,WUHU216HW,2013-08-02 17:46:00,
2013-08-02 12:47:00,98.6,70.8,29.86,SE,135,2.0,6.3,41,0.00,,,0.00,WUHU216HW,2013-08-02 17:47:00,
2013-08-02 12:48:00,98.8,70.4,29.86,SW,225,4.0,6.3,40,0.00,,,0.00,WUHU216HW,2013-08-02 17:48:00,
2013-08-02 12:49:00,99.0,70.6,29.86,SSW,203,2.7,6.3,40,0.00,,,0.00,WUHU216HW,2013-08-02 17:49:00,
2013-08-02 12:50:00,99.0,70.6,29.86,SSW,203,2.9,6.3,40,0.00,,,0.00,WUHU216HW,2013-08-02 17:50:00,
2013-08-02 12:51:00,99.2,70.7,29.86,SW,225,4.0,6.3,40,0.00,,,0.00,WUHU216HW,2013-08-02 17:51:00,
2013-08-02 12:52:00,99.2,69.8,29.86,SW,225,4.9,6.3,39,0.00,,,0.00,WUHU216HW,2013-08-02 17:52:00,
2013-08-02 12:53:00,99.2,69.8,29.86,SSW,203,1.8,6.3,39,0.00,,,0.00,WUHU216HW,2013-08-02 17:53:00,
2013-08-02 12:54:00,99.2,70.7,29.86,SSW,203,1.8,6.3,40,0.00,,,0.00,WUHU216HW,2013-08-02 17:54:00,
2013-08-02 12:55:00,99.4,70.0,29.86,SE,135,4.0,4.9,39,0.00,,,0.00,WUHU216HW,2013-08-02 17:55:00,
2013-08-02 12:56:00,99.4,70.8,29.85,SSW,203,2.5,4.9,40,0.00,,,0.00,WUHU216HW,2013-08-02 17:56:00,
2013-08-02 12:57:00,99.5,70.2,29.86,South,180,2.5,4.9,39,0.00,,,0.00,WUHU216HW,2013-08-02 17:57:00,
2013-08-02 12:58:00,99.4,70.0,29.85,SSW,203,0.7,4.9,39,0.00,,,0.00,WUHU216HW,2013-08-02 17:58:00,
2013-08-02 12:59:00,99.4,70.8,29.85,East,90,1.3,4.9,40,0.00,,,0.00,WUHU216HW,2013-08-02 17:59:00,
2013-08-02 13:00:00,99.4,70.8,29.85,East,90,1.3,4.9,40,0.00,,,0.00,WUHU216HW,2013-08-02 18:00:00,
2013-08-02 13:01:00,99.4,71.6,29.85,SE,135,4.9,4.9,41,0.00,,,0.00,WUHU216HW,2013-08-02 18:01:00,
2013-08-02 13:02:00,99.4,70.8,29.85,ESE,113,2.5,4.9,40,0.00,,,0.00,WUHU216HW,2013-08-02 18:02:00,
2013-08-02 13:03:00,99.4,70.0,29.85,ESE,113,4.9,4.9,39,0.00,,,0.00,WUHU216HW,2013-08-02 18:03:00,
2013-08-02 13:04:00,99.4,70.8,29.85,ESE,113,5.8,5.8,40,0.00,,,0.00,WUHU216HW,2013-08-02 18:04:00,
2013-08-02 13:05:00,99.2,70.7,29.85,SE,135,2.5,5.8,40,0.00,,,0.00,WUHU216HW,2013-08-02 18:05:00,
2013-08-02 13:06:00,99.4,70.8,29.85,SSE,158,4.0,5.8,40,0.00,,,0.00,WUHU216HW,2013-08-02 18:06:00,
2013-08-02 13:07:00,99.4,70.0,29.85,ESE,113,3.4,5.8,39,0.00,,,0.00,WUHU216HW,2013-08-02 18:07:00,
2013-08-02 13:08:00,99.5,70.2,29.85,SSW,203,2.7,5.8,39,0.00,,,0.00,WUHU216HW,2013-08-02 18:08:00,
2013-08-02 13:09:00,99.5,70.2,29.85,SW,225,1.3,5.8,39,0.00,,,0.00,WUHU216HW,2013-08-02 18:09:00,
2013-08-02 13:10:00,99.7,70.4,29.85,West,270,1.8,5.8,39,0.00,,,0.00,WUHU216HW,2013-08-02 18:10:00,
2013-08-02 13:11:00,99.7,69.5,29.85,ESE,113,1.6,5.8,38,0.00,,,0.00,WUHU216HW,2013-08-02 18:11:00,
2013-08-02 13:12:00,99.7,69.5,29.85,West,270,1.8,5.8,38,0.00,,,0.00,WUHU216HW,2013-08-02 18:12:00,
2013-08-02 13:13:00,99.7,69.5,29.85,SSE,158,2.9,5.8,38,0.00,,,0.00,WUHU216HW,2013-08-02 18:13:00,
2013-08-02 13:14:00,99.7,69.5,29.85,SSE,158,2.9,4.0,38,0.00,,,0.00,WUHU216HW,2013-08-02 18:14:00,
2013-08-02 13:15:00,99.7,69.5,29.85,ESE,113,3.8,4.0,38,0.00,,,0.00,WUHU216HW,2013-08-02 18:15:00,
2013-08-02 13:16:00,99.7,69.5,29.85,ESE,113,3.8,3.8,38,0.00,,,0.00,WUHU216HW,2013-08-02 18:16:00,
2013-08-02 13:17:00,99.7,69.5,29.85,ESE,113,3.8,3.8,38,0.00,,,0.00,WUHU216HW,2013-08-02 18:17:00,
2013-08-02 13:18:00,99.7,69.5,29.85,ESE,113,3.8,3.8,38,0.00,,,0.00,WUHU216HW,2013-08-02 18:18:00,
2013-08-02 13:19:00,99.7,69.5,29.85,SE,135,2.5,3.8,38,0.00,,,0.00,WUHU216HW,2013-08-02 18:19:00,
2013-08-02 13:20:00,99.9,70.5,29.85,SE,135,2.7,3.8,39,0.00,,,0.00,WUHU216HW,2013-08-02 18:20:00,
2013-08-02 13:21:00,99.7,69.5,29.85,SSE,158,3.1,3.8,38,0.00,,,0.00,WUHU216HW,2013-08-02 18:21:00,
2013-08-02 13:22:00,99.7,69.5,29.85,SE,135,5.4,5.4,38,0.00,,,0.00,WUHU216HW,2013-08-02 18:22:00,
2013-08-02 13:23:00,99.7,69.5,29.85,SE,135,1.8,5.4,38,0.00,,,0.00,WUHU216HW,2013-08-02 18:23:00,
2013-08-02 13:24:00,99.7,70.4,29.85,WSW,248,1.8,5.4,39,0.00,,,0.00,WUHU216HW,2013-08-02 18:24:00,
2013-08-02 13:25:00,99.7,70.4,29.85,SW,225,2.2,5.4,39,0.00,,,0.00,WUHU216HW,2013-08-02 18:25:00,
2013-08-02 13:26:00,99.7,71.2,29.85,SW,225,0.4,5.4,40,0.00,,,0.00,WUHU216HW,2013-08-02 18:26:00,
2013-08-02 13:27:00,99.7,71.2,29.85,SSE,158,4.3,5.4,40,0.00,,,0.00,WUHU216HW,2013-08-02 18:27:00,
2013-08-02 13:28:00,99.9,71.4,29.85,ESE,113,6.0,6.0,40,0.00,,,0.00,WUHU216HW,2013-08-02 18:28:00,
2013-08-02 13:29:00,99.9,69.7,29.85,East,90,5.6,6.0,38,0.00,,,0.00,WUHU216HW,2013-08-02 18:29:00,
2013-08-02 13:30:00,99.9,70.5,29.85,East,90,5.6,6.0,39,0.00,,,0.00,WUHU216HW,2013-08-02 18:30:00,
2013-08-02 13:31:00,99.9,70.5,29.85,WSW,248,2.5,6.0,39,0.00,,,0.00,WUHU216HW,2013-08-02 18:31:00,
2013-08-02 13:32:00,99.9,69.7,29.84,SSE,158,2.0,6.0,38,0.00,,,0.00,WUHU216HW,2013-08-02 18:32:00,
2013-08-02 13:33:00,99.9,70.5,29.84,SW,225,3.8,6.0,39,0.00,,,0.00,WUHU216HW,2013-08-02 18:33:00,
2013-08-02 13:34:00,100.1,69.8,29.84,WSW,248,1.6,6.0,38,0.00,,,0.00,WUHU216HW,2013-08-02 18:34:00,
2013-08-02 13:35:00,100.4,70.2,29.84,SSE,158,1.6,6.0,38,0.00,,,0.00,WUHU216HW,2013-08-02 18:35:00,
2013-08-02 13:36:00,100.4,70.2,29.84,WSW,248,1.8,6.0,38,0.00,,,0.00,WUHU216HW,2013-08-02 18:36:00,
2013-08-02 13:37:00,100.6,70.3,29.84,SW,225,1.1,6.0,38,0.00,,,0.00,WUHU216HW,2013-08-02 18:37:00,
2013-08-02 13:38:00,100.6,71.2,29.84,SW,225,2.7,5.6,39,0.00,,,0.00,WUHU216HW,2013-08-02 18:38:00,
2013-08-02 13:39:00,100.8,71.3,29.84,SE,135,4.3,5.6,39,0.00,,,0.00,WUHU216HW,2013-08-02 18:39:00,
2013-08-02 13:40:00,101.0,70.7,29.84,SE,135,7.4,7.4,38,0.00,,,0.00,WUHU216HW,2013-08-02 18:40:00,
2013-08-02 13:41:00,100.8,70.5,29.84,SE,135,1.3,7.4,38,0.00,,,0.00,WUHU216HW,2013-08-02 18:41:00,
2013-08-02 13:42:00,100.8,71.3,29.84,SSW,203,2.2,7.4,39,0.00,,,0.00,WUHU216HW,2013-08-02 18:42:00,
2013-08-02 13:43:00,100.8,71.3,29.84,SE,135,1.3,7.4,39,0.00,,,0.00,WUHU216HW,2013-08-02 18:43:00,
2013-08-02 13:44:00,101.0,70.7,29.84,SE,135,3.6,7.4,38,0.00,,,0.00,WUHU216HW,2013-08-02 18:44:00,
2013-08-02 13:45:00,101.2,71.7,29.84,South,180,8.3,8.3,39,0.00,,,0.00,WUHU216HW,2013-08-02 18:45:00,
2013-08-02 13:46:00,101.2,69.9,29.83,SW,225,2.0,8.3,37,0.00,,,0.00,WUHU216HW,2013-08-02 18:46:00,
2013-08-02 13:47:00,101.2,70.8,29.84,ESE,113,3.4,8.3,38,0.00,,,0.00,WUHU216HW,2013-08-02 18:47:00,
2013-08-02 13:48:00,101.2,70.8,29.84,SE,135,4.7,8.3,38,0.00,,,0.00,WUHU216HW,2013-08-02 18:48:00,
2013-08-02 13:49:00,101.2,70.8,29.83,East,90,8.9,8.9,38,0.00,,,0.00,WUHU216HW,2013-08-02 18:49:00,
2013-08-02 13:50:00,101.0,70.7,29.83,ESE,113,4.5,8.9,38,0.00,,,0.00,WUHU216HW,2013-08-02 18:50:00,
2013-08-02 13:51:00,100.8,70.5,29.83,SSE,158,2.2,8.9,38,0.00,,,0.00,WUHU216HW,2013-08-02 18:51:00,
2013-08-02 13:52:00,100.8,71.3,29.83,SSE,158,1.8,8.9,39,0.00,,,0.00,WUHU216HW,2013-08-02 18:52:00,
2013-08-02 13:53:00,100.8,70.5,29.83,ESE,113,3.8,8.9,38,0.00,,,0.00,WUHU216HW,2013-08-02 18:53:00,
2013-08-02 13:54:00,100.8,71.3,29.83,SE,135,1.6,8.9,39,0.00,,,0.00,WUHU216HW,2013-08-02 18:54:00,
2013-08-02 13:55:00,100.8,71.3,29.83,SSE,158,4.5,8.9,39,0.00,,,0.00,WUHU216HW,2013-08-02 18:55:00,
2013-08-02 13:56:00,100.8,70.5,29.83,SW,225,2.0,8.9,38,0.00,,,0.00,WUHU216HW,2013-08-02 18:56:00,
2013-08-02 13:57:00,100.8,70.5,29.83,SSW,203,1.6,8.9,38,0.00,,,0.00,WUHU216HW,2013-08-02 18:57:00,
2013-08-02 13:58:00,101.0,70.7,29.83,SW,225,2.9,8.9,38,0.00,,,0.00,WUHU216HW,2013-08-02 18:58:00,
2013-08-02 13:59:00,101.2,70.8,29.83,SW,225,1.1,4.5,38,0.00,,,0.00,WUHU216HW,2013-08-02 18:59:00,
2013-08-02 14:00:00,101.3,70.1,29.83,SW,225,1.3,4.5,37,0.00,,,0.00,WUHU216HW,2013-08-02 19:00:00,
2013-08-02 14:01:00,101.5,70.3,29.83,SW,225,4.0,4.5,37,0.00,,,0.00,WUHU216HW,2013-08-02 19:01:00,
2013-08-02 14:02:00,101.7,71.3,29.83,South,180,4.7,4.7,38,0.00,,,0.00,WUHU216HW,2013-08-02 19:02:00,
2013-08-02 14:03:00,101.9,70.6,29.83,SW,225,2.5,4.7,37,0.00,,,0.00,WUHU216HW,2013-08-02 19:03:00,
2013-08-02 14:04:00,101.9,69.8,29.83,South,180,3.4,4.7,36,0.00,,,0.00,WUHU216HW,2013-08-02 19:04:00,
2013-08-02 14:05:00,101.9,71.5,29.83,SSE,158,2.7,4.7,38,0.00,,,0.00,WUHU216HW,2013-08-02 19:05:00,
2013-08-02 14:06:00,102.1,69.9,29.83,SE,135,5.8,5.8,36,0.00,,,0.00,WUHU216HW,2013-08-02 19:06:00,
2013-08-02 14:07:00,101.9,69.8,29.83,West,270,2.0,5.8,36,0.00,,,0.00,WUHU216HW,2013-08-02 19:07:00,
2013-08-02 14:08:00,101.9,72.3,29.83,SE,135,1.8,5.8,39,0.00,,,0.00,WUHU216HW,2013-08-02 19:08:00,
2013-08-02 14:09:00,101.9,72.3,29.83,ESE,113,3.1,5.8,39,0.00,,,0.00,WUHU216HW,2013-08-02 19:09:00,
2013-08-02 14:10:00,101.7,71.3,29.82,SSE,158,4.0,5.8,38,0.00,,,0.00,WUHU216HW,2013-08-02 19:10:00,
2013-08-02 14:11:00,101.5,69.5,29.83,East,90,6.5,6.5,36,0.00,,,0.00,WUHU216HW,2013-08-02 19:11:00,
2013-08-02 14:12:00,101.0,68.9,29.83,ESE,113,7.6,7.6,36,0.00,,,0.00,WUHU216HW,2013-08-02 19:12:00,
2013-08-02 14:13:00,100.8,71.3,29.83,SW,225,0.7,7.6,39,0.00,,,0.00,WUHU216HW,2013-08-02 19:13:00,
2013-08-02 14:14:00,100.8,70.5,29.83,SW,225,2.9,7.6,38,0.00,,,0.00,WUHU216HW,2013-08-02 19:14:00,
2013-08-02 14:15:00,100.8,68.9,29.83,WSW,248,1.6,7.6,36,0.00,,,0.00,WUHU216HW,2013-08-02 19:15:00,
2013-08-02 14:16:00,101.0,68.9,29.83,ESE,113,2.2,7.6,36,0.00,,,0.00,WUHU216HW,2013-08-02 19:16:00,
2013-08-02 14:17:00,101.0,69.9,29.83,WSW,248,1.8,7.6,37,0.00,,,0.00,WUHU216HW,2013-08-02 19:17:00,
2013-08-02 14:18:00,101.0,70.7,29.83,SSW,203,2.2,7.6,38,0.00,,,0.00,WUHU216HW,2013-08-02 19:18:00,
2013-08-02 14:19:00,101.2,70.8,29.83,SW,225,2.0,7.6,38,0.00,,,0.00,WUHU216HW,2013-08-02 19:19:00,
2013-08-02 14:20:00,101.3,70.9,29.82,SSW,203,2.7,7.6,38,0.00,,,0.00,WUHU216HW,2013-08-02 19:20:00,
2013-08-02 14:21:00,101.5,71.1,29.82,NE,45,1.6,7.6,38,0.00,,,0.00,WUHU216HW,2013-08-02 19:21:00,
2013-08-02 14:22:00,101.5,69.5,29.82,SE,135,4.0,4.0,36,0.00,,,0.00,WUHU216HW,2013-08-02 19:22:00,
2013-08-02 14:23:00,101.3,69.3,29.82,ESE,113,4.0,4.0,36,0.00,,,0.00,WUHU216HW,2013-08-02 19:23:00,
2013-08-02 14:24:00,101.2,69.1,29.82,SE,135,5.1,5.1,36,0.00,,,0.00,WUHU216HW,2013-08-02 19:24:00,
2013-08-02 14:25:00,101.2,69.9,29.82,SSW,203,3.8,5.1,37,0.00,,,0.00,WUHU216HW,2013-08-02 19:25:00,
2013-08-02 14:26:00,100.8,69.7,29.82,ESE,113,1.6,5.1,37,0.00,,,0.00,WUHU216HW,2013-08-02 19:26:00,
2013-08-02 14:27:00,100.8,70.5,29.82,SSE,158,4.7,5.1,38,0.00,,,0.00,WUHU216HW,2013-08-02 19:27:00,
2013-08-02 14:28:00,101.0,70.7,29.82,SE,135,4.3,5.1,38,0.00,,,0.00,WUHU216HW,2013-08-02 19:28:00,
2013-08-02 14:29:00,101.2,69.9,29.82,NNE,23,2.5,5.1,37,0.00,,,0.00,WUHU216HW,2013-08-02 19:29:00,
2013-08-02 14:30:00,101.2,69.9,29.82,SE,135,3.1,5.1,37,0.00,,,0.00,WUHU216HW,2013-08-02 19:30:00,
2013-08-02 14:31:00,101.3,70.1,29.82,South,180,2.5,5.1,37,0.00,,,0.00,WUHU216HW,2013-08-02 19:31:00,
2013-08-02 14:32:00,101.5,69.5,29.82,SSE,158,2.0,5.1,36,0.00,,,0.00,WUHU216HW,2013-08-02 19:32:00,
2013-08-02 14:33:00,101.3,70.9,29.82,ESE,113,6.5,6.5,38,0.00,,,0.00,WUHU216HW,2013-08-02 19:33:00,
2013-08-02 14:34:00,101.2,69.1,29.82,South,180,2.0,6.5,36,0.00,,,0.00,WUHU216HW,2013-08-02 19:34:00,
2013-08-02 14:35:00,101.2,69.1,29.82,SE,135,3.1,6.5,36,0.00,,,0.00,WUHU216HW,2013-08-02 19:35:00,
2013-08-02 14:36:00,100.8,69.7,29.82,South,180,1.1,6.5,37,0.00,,,0.00,WUHU216HW,2013-08-02 19:36:00,
2013-08-02 14:37:00,100.6,68.7,29.82,SE,135,3.6,6.5,36,0.00,,,0.00,WUHU216HW,2013-08-02 19:37:00,
2013-08-02 14:38:00,100.4,70.2,29.82,East,90,4.5,6.5,38,0.00,,,0.00,WUHU216HW,2013-08-02 19:38:00,
2013-08-02 14:39:00,100.6,70.3,29.82,SW,225,2.0,6.5,38,0.00,,,0.00,WUHU216HW,2013-08-02 19:39:00,
2013-08-02 14:40:00,100.6,69.5,29.82,SW,225,2.7,6.5,37,0.00,,,0.00,WUHU216HW,2013-08-02 19:40:00,
2013-08-02 14:41:00,100.8,70.5,29.81,WSW,248,2.9,6.5,38,0.00,,,0.00,WUHU216HW,2013-08-02 19:41:00,
2013-08-02 14:42:00,101.2,70.8,29.81,SE,135,2.7,6.5,38,0.00,,,0.00,WUHU216HW,2013-08-02 19:42:00,
2013-08-02 14:43:00,101.2,70.8,29.81,WNW,293,3.6,4.5,38,0.00,,,0.00,WUHU216HW,2013-08-02 19:43:00,
2013-08-02 14:44:00,101.3,71.8,29.81,SE,135,6.0,6.0,39,0.00,,,0.00,WUHU216HW,2013-08-02 19:44:00,
2013-08-02 14:45:00,101.5,69.5,29.81,SSE,158,6.7,6.7,36,0.00,,,0.00,WUHU216HW,2013-08-02 19:45:00,
2013-08-02 14:46:00,101.5,69.5,29.81,SSE,158,6.3,6.7,36,0.00,,,0.00,WUHU216HW,2013-08-02 19:46:00,
2013-08-02 14:47:00,101.5,71.1,29.81,ESE,113,5.6,6.7,38,0.00,,,0.00,WUHU216HW,2013-08-02 19:47:00,
2013-08-02 14:48:00,101.5,69.5,29.81,South,180,6.9,6.9,36,0.00,,,0.00,WUHU216HW,2013-08-02 19:48:00,
2013-08-02 14:49:00,101.5,69.5,29.81,SE,135,3.6,6.9,36,0.00,,,0.00,WUHU216HW,2013-08-02 19:49:00,
2013-08-02 14:50:00,101.5,69.5,29.81,South,180,1.1,6.9,36,0.00,,,0.00,WUHU216HW,2013-08-02 19:50:00,
2013-08-02 14:51:00,101.3,69.3,29.81,SE,135,2.2,6.9,36,0.00,,,0.00,WUHU216HW,2013-08-02 19:51:00,
2013-08-02 14:52:00,101.3,69.3,29.81,SE,135,2.5,6.9,36,0.00,,,0.00,WUHU216HW,2013-08-02 19:52:00,
2013-08-02 14:53:00,101.3,69.3,29.81,WSW,248,2.9,6.9,36,0.00,,,0.00,WUHU216HW,2013-08-02 19:53:00,
2013-08-02 14:54:00,101.3,70.9,29.81,SSE,158,5.4,6.9,38,0.00,,,0.00,WUHU216HW,2013-08-02 19:54:00,
2013-08-02 14:55:00,101.2,69.1,29.81,SSE,158,2.2,6.9,36,0.00,,,0.00,WUHU216HW,2013-08-02 19:55:00,
2013-08-02 14:56:00,101.3,69.3,29.81,SE,135,0.7,6.9,36,0.00,,,0.00,WUHU216HW,2013-08-02 19:56:00,
2013-08-02 14:57:00,101.3,70.1,29.81,SSW,203,2.0,6.9,37,0.00,,,0.00,WUHU216HW,2013-08-02 19:57:00,
2013-08-02 14:58:00,101.5,69.5,29.81,SW,225,1.1,5.4,36,0.00,,,0.00,WUHU216HW,2013-08-02 19:58:00,
2013-08-02 14:59:00,101.5,70.3,29.81,SSW,203,1.1,5.4,37,0.00,,,0.00,WUHU216HW,2013-08-02 19:59:00,
2013-08-02 15:00:00,101.7,70.5,29.81,SW,225,1.1,5.4,37,0.00,,,0.00,WUHU216HW,2013-08-02 20:00:00,
2013-08-02 15:01:00,101.9,70.6,29.81,WSW,248,1.6,5.4,37,0.00,,,0.00,WUHU216HW,2013-08-02 20:01:00,
2013-08-02 15:02:00,102.1,69.9,29.81,SW,225,1.8,5.4,36,0.00,,,0.00,WUHU216HW,2013-08-02 20:02:00,
2013-08-02 15:03:00,102.4,70.2,29.81,SSE,158,1.6,5.4,36,0.00,,,0.00,WUHU216HW,2013-08-02 20:03:00,
2013-08-02 15:04:00,102.6,68.7,29.81,SE,135,4.9,5.4,34,0.00,,,0.00,WUHU216HW,2013-08-02 20:04:00,
2013-08-02 15:05:00,102.6,68.7,29.81,SE,135,5.4,5.4,34,0.00,,,0.00,WUHU216HW,2013-08-02 20:05:00,
2013-08-02 15:06:00,102.4,69.4,29.81,East,90,4.9,5.4,35,0.00,,,0.00,WUHU216HW,2013-08-02 20:06:00,
2013-08-02 15:07:00,102.2,69.2,29.81,ESE,113,6.7,6.7,35,0.00,,,0.00,WUHU216HW,2013-08-02 20:07:00,
2013-08-02 15:08:00,101.9,69.0,29.81,South,180,3.4,6.7,35,0.00,,,0.00,WUHU216HW,2013-08-02 20:08:00,
2013-08-02 15:09:00,101.9,69.8,29.81,SSW,203,2.2,6.7,36,0.00,,,0.00,WUHU216HW,2013-08-02 20:09:00,
2013-08-02 15:10:00,101.9,69.8,29.81,SW,225,2.7,6.7,36,0.00,,,0.00,WUHU216HW,2013-08-02 20:10:00,
2013-08-02 15:11:00,102.1,69.0,29.81,SW,225,2.7,6.7,35,0.00,,,0.00,WUHU216HW,2013-08-02 20:11:00,
2013-08-02 15:12:00,102.2,70.0,29.81,SW,225,3.1,6.7,36,0.00,,,0.00,WUHU216HW,2013-08-02 20:12:00,
2013-08-02 15:13:00,102.4,69.4,29.81,ESE,113,5.8,6.7,35,0.00,,,0.00,WUHU216HW,2013-08-02 20:13:00,
2013-08-02 15:14:00,102.4,70.2,29.81,ESE,113,5.6,6.7,36,0.00,,,0.00,WUHU216HW,2013-08-02 20:14:00,
2013-08-02 15:15:00,102.4,70.2,29.81,SE,135,4.0,6.7,36,0.00,,,0.00,WUHU216HW,2013-08-02 20:15:00,
2013-08-02 15:16:00,102.2,69.2,29.81,SE,135,4.3,6.7,35,0.00,,,0.00,WUHU216HW,2013-08-02 20:16:00,
2013-08-02 15:17:00,102.1,69.0,29.80,SE,135,1.3,5.8,35,0.00,,,0.00,WUHU216HW,2013-08-02 20:17:00,
2013-08-02 15:18:00,102.1,69.9,29.80,SSW,203,2.7,5.8,36,0.00,,,0.00,WUHU216HW,2013-08-02 20:18:00,
2013-08-02 15:19:00,102.2,70.0,29.81,SW,225,1.8,5.8,36,0.00,,,0.00,WUHU216HW,2013-08-02 20:19:00,
2013-08-02 15:20:00,102.4,69.4,29.80,SSW,203,2.9,5.8,35,0.00,,,0.00,WUHU216HW,2013-08-02 20:20:00,
2013-08-02 15:21:00,102.6,69.6,29.80,SW,225,4.0,5.8,35,0.00,,,0.00,WUHU216HW,2013-08-02 20:21:00,
2013-08-02 15:22:00,103.0,69.8,29.80,SSW,203,3.8,5.8,35,0.00,,,0.00,WUHU216HW,2013-08-02 20:22:00,
2013-08-02 15:23:00,103.1,69.2,29.80,SE,135,1.8,5.6,34,0.00,,,0.00,WUHU216HW,2013-08-02 20:23:00,
2013-08-02 15:24:00,103.1,69.2,29.80,West,270,1.1,4.3,34,0.00,,,0.00,WUHU216HW,2013-08-02 20:24:00,
2013-08-02 15:25:00,103.3,70.2,29.80,SW,225,2.2,4.3,35,0.00,,,0.00,WUHU216HW,2013-08-02 20:25:00,
2013-08-02 15:26:00,103.3,69.3,29.80,SSW,203,2.7,4.0,34,0.00,,,0.00,WUHU216HW,2013-08-02 20:26:00,
2013-08-02 15:27:00,103.5,69.5,29.80,SW,225,4.5,4.5,34,0.00,,,0.00,WUHU216HW,2013-08-02 20:27:00,
2013-08-02 15:28:00,103.5,69.5,29.80,SW,225,1.8,4.5,34,0.00,,,0.00,WUHU216HW,2013-08-02 20:28:00,
2013-08-02 15:29:00,103.5,69.5,29.80,SSE,158,3.4,4.5,34,0.00,,,0.00,WUHU216HW,2013-08-02 20:29:00,
2013-08-02 15:30:00,103.3,69.3,29.80,SE,135,2.5,4.5,34,0.00,,,0.00,WUHU216HW,2013-08-02 20:30:00,
2013-08-02 15:31:00,103.3,69.3,29.80,South,180,1.1,4.5,34,0.00,,,0.00,WUHU216HW,2013-08-02 20:31:00,
2013-08-02 15:32:00,103.1,69.2,29.80,SW,225,0.7,4.5,34,0.00,,,0.00,WUHU216HW,2013-08-02 20:32:00,
2013-08-02 15:33:00,103.0,69.0,29.80,ESE,113,3.8,4.5,34,0.00,,,0.00,WUHU216HW,2013-08-02 20:33:00,
2013-08-02 15:34:00,102.8,69.7,29.80,SW,225,2.7,4.5,35,0.00,,,0.00,WUHU216HW,2013-08-02 20:34:00,
2013-08-02 15:35:00,102.8,69.7,29.80,SSW,203,1.3,4.5,35,0.00,,,0.00,WUHU216HW,2013-08-02 20:35:00,
2013-08-02 15:36:00,102.8,70.6,29.80,SW,225,1.3,4.5,36,0.00,,,0.00,WUHU216HW,2013-08-02 20:36:00,
2013-08-02 15:37:00,103.0,69.0,29.80,SE,135,2.0,3.8,34,0.00,,,0.00,WUHU216HW,2013-08-02 20:37:00,
2013-08-02 15:38:00,103.0,69.8,29.80,SE,135,1.3,3.8,35,0.00,,,0.00,WUHU216HW,2013-08-02 20:38:00,
2013-08-02 15:39:00,103.0,69.0,29.80,SW,225,2.5,3.8,34,0.00,,,0.00,WUHU216HW,2013-08-02 20:39:00,
2013-08-02 15:40:00,103.0,69.0,29.80,West,270,0.4,3.8,34,0.00,,,0.00,WUHU216HW,2013-08-02 20:40:00,
2013-08-02 15:41:00,103.0,69.0,29.80,SSW,203,2.7,3.8,34,0.00,,,0.00,WUHU216HW,2013-08-02 20:41:00,
2013-08-02 15:42:00,103.0,69.0,29.80,SSE,158,1.8,3.8,34,0.00,,,0.00,WUHU216HW,2013-08-02 20:42:00,
2013-08-02 15:43:00,103.0,69.0,29.80,SW,225,1.8,2.7,34,0.00,,,0.00,WUHU216HW,2013-08-02 20:43:00,
2013-08-02 15:44:00,103.0,69.0,29.80,SSW,203,1.8,2.7,34,0.00,,,0.00,WUHU216HW,2013-08-02 20:44:00,
2013-08-02 15:45:00,103.1,69.2,29.79,SW,225,3.1,3.1,34,0.00,,,0.00,WUHU216HW,2013-08-02 20:45:00,
2013-08-02 15:46:00,103.3,69.3,29.80,SW,225,1.6,3.1,34,0.00,,,0.00,WUHU216HW,2013-08-02 20:46:00,
2013-08-02 15:47:00,103.5,69.5,29.79,NW,315,0.7,3.1,34,0.00,,,0.00,WUHU216HW,2013-08-02 20:47:00,
2013-08-02 15:48:00,103.5,69.5,29.79,South,180,3.6,3.6,34,0.00,,,0.00,WUHU216HW,2013-08-02 20:48:00,
2013-08-02 15:49:00,103.7,69.7,29.79,SE,135,2.0,3.6,34,0.00,,,0.00,WUHU216HW,2013-08-02 20:49:00,
2013-08-02 15:50:00,103.5,69.5,29.79,SSE,158,3.6,3.6,34,0.00,,,0.00,WUHU216HW,2013-08-02 20:50:00,
2013-08-02 15:51:00,103.5,70.4,29.79,SE,135,3.1,3.6,35,0.00,,,0.00,WUHU216HW,2013-08-02 20:51:00,
2013-08-02 15:52:00,103.3,69.3,29.80,SSE,158,6.5,6.5,34,0.00,,,0.00,WUHU216HW,2013-08-02 20:52:00,
2013-08-02 15:53:00,103.3,70.2,29.79,SE,135,3.4,6.5,35,0.00,,,0.00,WUHU216HW,2013-08-02 20:53:00,
2013-08-02 15:54:00,103.1,70.8,29.80,ESE,113,3.4,6.5,36,0.00,,,0.00,WUHU216HW,2013-08-02 20:54:00,
2013-08-02 15:55:00,103.0,69.0,29.79,SSE,158,2.2,6.5,34,0.00,,,0.00,WUHU216HW,2013-08-02 20:55:00,
2013-08-02 15:56:00,103.0,70.8,29.79,ESE,113,1.6,6.5,36,0.00,,,0.00,WUHU216HW,2013-08-02 20:56:00,
2013-08-02 15:57:00,102.8,72.3,29.79,SE,135,6.3,6.5,38,0.00,,,0.00,WUHU216HW,2013-08-02 20:57:00,
2013-08-02 15:58:00,102.6,69.6,29.79,East,90,6.3,6.5,35,0.00,,,0.00,WUHU216HW,2013-08-02 20:58:00,
2013-08-02 15:59:00,102.6,70.4,29.79,SSE,158,1.3,6.5,36,0.00,,,0.00,WUHU216HW,2013-08-02 20:59:00,
2013-08-02 16:00:00,102.6,70.4,29.79,SSE,158,1.3,6.5,36,0.00,,,0.00,WUHU216HW,2013-08-02 21:00:00,
2013-08-02 16:01:00,102.8,70.6,29.79,SSW,203,2.2,6.5,36,0.00,,,0.00,WUHU216HW,2013-08-02 21:01:00,
2013-08-02 16:02:00,103.1,70.0,29.79,SW,225,3.4,6.5,35,0.00,,,0.00,WUHU216HW,2013-08-02 21:02:00,
2013-08-02 16:03:00,103.3,69.3,29.79,SSE,158,5.1,6.3,34,0.00,,,0.00,WUHU216HW,2013-08-02 21:03:00,
2013-08-02 16:04:00,103.3,69.3,29.79,ESE,113,5.4,6.3,34,0.00,,,0.00,WUHU216HW,2013-08-02 21:04:00,
2013-08-02 16:05:00,103.3,69.3,29.79,SE,135,6.5,6.5,34,0.00,,,0.00,WUHU216HW,2013-08-02 21:05:00,
2013-08-02 16:06:00,103.0,69.0,29.79,South,180,2.5,6.5,34,0.00,,,0.00,WUHU216HW,2013-08-02 21:06:00,
2013-08-02 16:07:00,103.0,69.0,29.79,SE,135,2.0,6.5,34,0.00,,,0.00,WUHU216HW,2013-08-02 21:07:00,
2013-08-02 16:08:00,102.6,69.6,29.79,South,180,2.9,6.5,35,0.00,,,0.00,WUHU216HW,2013-08-02 21:08:00,
2013-08-02 16:09:00,102.6,69.6,29.79,ESE,113,4.9,6.5,35,0.00,,,0.00,WUHU216HW,2013-08-02 21:09:00,
2013-08-02 16:10:00,102.4,69.4,29.79,South,180,2.9,6.5,35,0.00,,,0.00,WUHU216HW,2013-08-02 21:10:00,
2013-08-02 16:11:00,102.2,69.2,29.79,ESE,113,3.4,6.5,35,0.00,,,0.00,WUHU216HW,2013-08-02 21:11:00,
2013-08-02 16:12:00,102.2,69.2,29.79,SE,135,5.4,6.5,35,0.00,,,0.00,WUHU216HW,2013-08-02 21:12:00,
2013-08-02 16:13:00,102.1,69.0,29.79,SSE,158,5.4,6.5,35,0.00,,,0.00,WUHU216HW,2013-08-02 21:13:00,
2013-08-02 16:14:00,101.9,69.0,29.79,ESE,113,8.5,8.5,35,0.00,,,0.00,WUHU216HW,2013-08-02 21:14:00,
2013-08-02 16:15:00,101.9,69.8,29.79,ESE,113,6.0,8.5,36,0.00,,,0.00,WUHU216HW,2013-08-02 21:15:00,
2013-08-02 16:16:00,101.9,69.0,29.79,SE,135,6.3,8.5,35,0.00,,,0.00,WUHU216HW,2013-08-02 21:16:00,
2013-08-02 16:17:00,101.9,69.0,29.79,SE,135,6.9,8.5,35,0.00,,,0.00,WUHU216HW,2013-08-02 21:17:00,
2013-08-02 16:18:00,101.9,69.0,29.79,SE,135,8.3,8.5,35,0.00,,,0.00,WUHU216HW,2013-08-02 21:18:00,
2013-08-02 16:19:00,101.7,68.8,29.79,ESE,113,5.6,8.5,35,0.00,,,0.00,WUHU216HW,2013-08-02 21:19:00,
2013-08-02 16:20:00,101.7,69.6,29.79,East,90,6.3,8.5,36,0.00,,,0.00,WUHU216HW,2013-08-02 21:20:00,
2013-08-02 16:21:00,101.5,68.6,29.79,SE,135,6.5,8.5,35,0.00,,,0.00,WUHU216HW,2013-08-02 21:21:00,
2013-08-02 16:22:00,101.3,68.4,29.79,ESE,113,4.7,8.5,35,0.00,,,0.00,WUHU216HW,2013-08-02 21:22:00,
2013-08-02 16:23:00,101.2,68.3,29.79,SE,135,3.8,8.5,35,0.00,,,0.00,WUHU216HW,2013-08-02 21:23:00,
2013-08-02 16:24:00,100.8,68.9,29.79,ESE,113,6.0,8.3,36,0.00,,,0.00,WUHU216HW,2013-08-02 21:24:00,
2013-08-02 16:25:00,100.4,68.5,29.79,ESE,113,4.0,8.3,36,0.00,,,0.00,WUHU216HW,2013-08-02 21:25:00,
2013-08-02 16:26:00,100.3,68.3,29.79,SE,135,2.7,8.3,36,0.00,,,0.00,WUHU216HW,2013-08-02 21:26:00,
2013-08-02 16:27:00,100.1,68.2,29.79,West,270,1.1,8.3,36,0.00,,,0.00,WUHU216HW,2013-08-02 21:27:00,
2013-08-02 16:28:00,100.3,68.3,29.79,South,180,2.2,6.5,36,0.00,,,0.00,WUHU216HW,2013-08-02 21:28:00,
2013-08-02 16:29:00,100.3,68.3,29.79,ESE,113,3.8,6.5,36,0.00,,,0.00,WUHU216HW,2013-08-02 21:29:00,
2013-08-02 16:30:00,100.3,68.3,29.79,ESE,113,4.0,6.5,36,0.00,,,0.00,WUHU216HW,2013-08-02 21:30:00,
2013-08-02 16:31:00,100.3,68.3,29.79,ESE,113,3.6,6.0,36,0.00,,,0.00,WUHU216HW,2013-08-02 21:31:00,
2013-08-02 16:32:00,100.3,68.3,29.79,ESE,113,4.0,6.0,36,0.00,,,0.00,WUHU216HW,2013-08-02 21:32:00,
2013-08-02 16:33:00,100.3,69.2,29.79,East,90,5.4,6.0,37,0.00,,,0.00,WUHU216HW,2013-08-02 21:33:00,
2013-08-02 16:34:00,100.3,68.3,29.79,ESE,113,8.5,8.5,36,0.00,,,0.00,WUHU216HW,2013-08-02 21:34:00,
2013-08-02 16:35:00,100.6,68.7,29.79,ESE,113,6.9,8.5,36,0.00,,,0.00,WUHU216HW,2013-08-02 21:35:00,
2013-08-02 16:36:00,100.8,68.9,29.79,SE,135,6.9,8.5,36,0.00,,,0.00,WUHU216HW,2013-08-02 21:36:00,
2013-08-02 16:37:00,100.8,68.0,29.79,SE,135,8.5,8.5,35,0.00,,,0.00,WUHU216HW,2013-08-02 21:37:00,
2013-08-02 16:38:00,100.8,70.5,29.79,SSE,158,5.6,8.5,38,0.00,,,0.00,WUHU216HW,2013-08-02 21:38:00,
2013-08-02 16:39:00,100.8,70.5,29.79,ENE,68,3.8,8.5,38,0.00,,,0.00,WUHU216HW,2013-08-02 21:39:00,
2013-08-02 16:40:00,101.0,68.9,29.79,SE,135,5.8,8.5,36,0.00,,,0.00,WUHU216HW,2013-08-02 21:40:00,
2013-08-02 16:41:00,101.2,69.9,29.79,ESE,113,2.5,8.5,37,0.00,,,0.00,WUHU216HW,2013-08-02 21:41:00,
2013-08-02 16:42:00,101.2,69.1,29.79,East,90,6.3,8.5,36,0.00,,,0.00,WUHU216HW,2013-08-02 21:42:00,
2013-08-02 16:43:00,100.8,68.9,29.79,ESE,113,6.9,8.5,36,0.00,,,0.00,WUHU216HW,2013-08-02 21:43:00,
2013-08-02 16:44:00,100.6,68.7,29.79,ESE,113,5.4,8.5,36,0.00,,,0.00,WUHU216HW,2013-08-02 21:44:00,
2013-08-02 16:45:00,100.6,68.7,29.79,ESE,113,4.7,8.5,36,0.00,,,0.00,WUHU216HW,2013-08-02 21:45:00,
2013-08-02 16:46:00,100.6,68.7,29.79,ENE,68,4.0,8.5,36,0.00,,,0.00,WUHU216HW,2013-08-02 21:46:00,
2013-08-02 16:47:00,100.8,70.5,29.79,ESE,113,6.3,6.9,38,0.00,,,0.00,WUHU216HW,2013-08-02 21:47:00,
2013-08-02 16:48:00,100.8,68.0,29.79,East,90,5.8,6.9,35,0.00,,,0.00,WUHU216HW,2013-08-02 21:48:00,
2013-08-02 16:49:00,100.8,68.9,29.79,ESE,113,2.9,6.9,36,0.00,,,0.00,WUHU216HW,2013-08-02 21:49:00,
2013-08-02 16:50:00,100.8,70.5,29.79,ESE,113,2.5,6.9,38,0.00,,,0.00,WUHU216HW,2013-08-02 21:50:00,
2013-08-02 16:51:00,100.6,68.7,29.79,ENE,68,2.5,6.9,36,0.00,,,0.00,WUHU216HW,2013-08-02 21:51:00,
2013-08-02 16:52:00,100.6,69.5,29.79,ESE,113,1.8,6.9,37,0.00,,,0.00,WUHU216HW,2013-08-02 21:52:00,
2013-08-02 16:53:00,100.4,70.2,29.79,ESE,113,3.8,6.3,38,0.00,,,0.00,WUHU216HW,2013-08-02 21:53:00,
2013-08-02 16:54:00,100.4,68.5,29.79,SE,135,6.5,6.5,36,0.00,,,0.00,WUHU216HW,2013-08-02 21:54:00,
2013-08-02 16:55:00,100.1,68.2,29.79,SE,135,4.9,6.5,36,0.00,,,0.00,WUHU216HW,2013-08-02 21:55:00,
2013-08-02 16:56:00,100.1,68.2,29.79,SE,135,4.0,6.5,36,0.00,,,0.00,WUHU216HW,2013-08-02 21:56:00,
2013-08-02 16:57:00,100.1,67.3,29.79,SSE,158,2.2,6.5,35,0.00,,,0.00,WUHU216HW,2013-08-02 21:57:00,
2013-08-02 16:58:00,100.1,68.2,29.79,SE,135,3.8,6.5,36,0.00,,,0.00,WUHU216HW,2013-08-02 21:58:00,
2013-08-02 16:59:00,100.1,67.3,29.79,ESE,113,7.2,7.2,35,0.00,,,0.00,WUHU216HW,2013-08-02 21:59:00,
2013-08-02 17:00:00,100.1,67.3,29.79,ESE,113,7.2,7.2,35,0.00,,,0.00,WUHU216HW,2013-08-02 22:00:00,
2013-08-02 17:01:00,100.3,70.0,29.79,ESE,113,4.7,7.2,38,0.00,,,0.00,WUHU216HW,2013-08-02 22:01:00,
2013-08-02 17:02:00,100.4,67.7,29.79,South,180,2.2,7.2,35,0.00,,,0.00,WUHU216HW,2013-08-02 22:02:00,
2013-08-02 17:03:00,100.4,67.7,29.79,SSE,158,2.5,7.2,35,0.00,,,0.00,WUHU216HW,2013-08-02 22:03:00,
2013-08-02 17:04:00,100.8,68.0,29.79,SSW,203,0.2,7.2,35,0.00,,,0.00,WUHU216HW,2013-08-02 22:04:00,
2013-08-02 17:05:00,101.0,70.7,29.79,East,90,4.7,7.2,38,0.00,,,0.00,WUHU216HW,2013-08-02 22:05:00,
2013-08-02 17:06:00,101.0,71.5,29.79,East,90,5.4,7.2,39,0.00,,,0.00,WUHU216HW,2013-08-02 22:06:00,
2013-08-02 17:07:00,101.0,71.5,29.79,ENE,68,6.9,7.2,39,0.00,,,0.00,WUHU216HW,2013-08-02 22:07:00,
2013-08-02 17:08:00,100.8,70.5,29.79,East,90,4.3,7.2,38,0.00,,,0.00,WUHU216HW,2013-08-02 22:08:00,
2013-08-02 17:09:00,100.4,71.0,29.79,East,90,5.1,7.2,39,0.00,,,0.00,WUHU216HW,2013-08-02 22:09:00,
2013-08-02 17:10:00,100.3,71.6,29.79,East,90,5.4,6.9,40,0.00,,,0.00,WUHU216HW,2013-08-02 22:10:00,
2013-08-02 17:11:00,99.9,71.4,29.79,SSE,158,4.7,6.9,40,0.00,,,0.00,WUHU216HW,2013-08-02 22:11:00,
2013-08-02 17:12:00,99.9,71.4,29.79,ENE,68,3.1,6.9,40,0.00,,,0.00,WUHU216HW,2013-08-02 22:12:00,
2013-08-02 17:13:00,99.7,71.8,29.79,ENE,68,2.7,6.9,41,0.00,,,0.00,WUHU216HW,2013-08-02 22:13:00,
2013-08-02 17:14:00,99.7,71.2,29.79,East,90,3.1,6.9,40,0.00,,,0.00,WUHU216HW,2013-08-02 22:14:00,
2013-08-02 17:15:00,99.7,71.8,29.79,East,90,3.6,6.9,41,0.00,,,0.00,WUHU216HW,2013-08-02 22:15:00,
2013-08-02 17:16:00,99.7,70.4,29.79,East,90,7.8,7.8,39,0.00,,,0.00,WUHU216HW,2013-08-02 22:16:00,
2013-08-02 17:17:00,99.7,70.4,29.79,SE,135,8.5,8.5,39,0.00,,,0.00,WUHU216HW,2013-08-02 22:17:00,
2013-08-02 17:18:00,99.5,70.2,29.79,SE,135,6.0,8.5,39,0.00,,,0.00,WUHU216HW,2013-08-02 22:18:00,
2013-08-02 17:19:00,99.7,71.2,29.79,ESE,113,7.2,8.5,40,0.00,,,0.00,WUHU216HW,2013-08-02 22:19:00,
2013-08-02 17:20:00,99.5,70.2,29.79,East,90,3.4,8.5,39,0.00,,,0.00,WUHU216HW,2013-08-02 22:20:00,
2013-08-02 17:21:00,99.5,71.0,29.79,ESE,113,2.7,8.5,40,0.00,,,0.00,WUHU216HW,2013-08-02 22:21:00,
2013-08-02 17:22:00,99.5,70.2,29.79,ENE,68,5.1,8.5,39,0.00,,,0.00,WUHU216HW,2013-08-02 22:22:00,
2013-08-02 17:23:00,99.7,71.2,29.79,ESE,113,6.9,8.5,40,0.00,,,0.00,WUHU216HW,2013-08-02 22:23:00,
2013-08-02 17:24:00,99.5,71.0,29.78,East,90,4.5,8.5,40,0.00,,,0.00,WUHU216HW,2013-08-02 22:24:00,
2013-08-02 17:25:00,99.7,70.4,29.79,ENE,68,6.0,8.5,39,0.00,,,0.00,WUHU216HW,2013-08-02 22:25:00,
2013-08-02 17:26:00,99.7,70.4,29.79,SE,135,7.6,8.5,39,0.00,,,0.00,WUHU216HW,2013-08-02 22:26:00,
2013-08-02 17:27:00,99.7,70.4,29.78,ENE,68,3.1,7.6,39,0.00,,,0.00,WUHU216HW,2013-08-02 22:27:00,
2013-08-02 17:28:00,99.7,70.4,29.78,ESE,113,4.7,7.6,39,0.00,,,0.00,WUHU216HW,2013-08-02 22:28:00,
2013-08-02 17:29:00,99.5,71.0,29.79,ESE,113,3.8,7.6,40,0.00,,,0.00,WUHU216HW,2013-08-02 22:29:00,
2013-08-02 17:30:00,99.5,71.0,29.78,ENE,68,2.5,7.6,40,0.00,,,0.00,WUHU216HW,2013-08-02 22:30:00,
2013-08-02 17:31:00,99.4,70.8,29.78,ESE,113,2.5,7.6,40,0.00,,,0.00,WUHU216HW,2013-08-02 22:31:00,
2013-08-02 17:32:00,99.4,70.0,29.78,SSE,158,6.3,7.6,39,0.00,,,0.00,WUHU216HW,2013-08-02 22:32:00,
2013-08-02 17:33:00,99.2,69.8,29.78,ENE,68,6.5,7.6,39,0.00,,,0.00,WUHU216HW,2013-08-02 22:33:00,
2013-08-02 17:34:00,99.0,70.6,29.78,ESE,113,6.5,7.6,40,0.00,,,0.00,WUHU216HW,2013-08-02 22:34:00,
2013-08-02 17:35:00,98.8,69.6,29.78,ESE,113,7.8,7.8,39,0.00,,,0.00,WUHU216HW,2013-08-02 22:35:00,
2013-08-02 17:36:00,98.6,69.4,29.79,SSE,158,7.8,7.8,39,0.00,,,0.00,WUHU216HW,2013-08-02 22:36:00,
2013-08-02 17:37:00,98.8,69.6,29.79,ESE,113,6.5,7.8,39,0.00,,,0.00,WUHU216HW,2013-08-02 22:37:00,
2013-08-02 17:38:00,98.8,70.4,29.79,ESE,113,5.8,7.8,40,0.00,,,0.00,WUHU216HW,2013-08-02 22:38:00,
2013-08-02 17:39:00,99.0,69.7,29.79,SE,135,6.3,7.8,39,0.00,,,0.00,WUHU216HW,2013-08-02 22:39:00,
2013-08-02 17:40:00,99.0,68.9,29.78,East,90,5.8,7.8,38,0.00,,,0.00,WUHU216HW,2013-08-02 22:40:00,
2013-08-02 17:41:00,99.0,69.7,29.78,ESE,113,5.4,7.8,39,0.00,,,0.00,WUHU216HW,2013-08-02 22:41:00,
2013-08-02 17:42:00,99.2,69.8,29.79,East,90,7.4,7.8,39,0.00,,,0.00,WUHU216HW,2013-08-02 22:42:00,
2013-08-02 17:43:00,99.0,68.9,29.79,ESE,113,7.2,7.8,38,0.00,,,0.00,WUHU216HW,2013-08-02 22:43:00,
2013-08-02 17:44:00,99.0,69.7,29.79,ESE,113,8.5,8.5,39,0.00,,,0.00,WUHU216HW,2013-08-02 22:44:00,
2013-08-02 17:45:00,98.8,69.6,29.78,East,90,5.4,8.5,39,0.00,,,0.00,WUHU216HW,2013-08-02 22:45:00,
2013-08-02 17:46:00,98.6,69.4,29.78,SE,135,6.3,8.5,39,0.00,,,0.00,WUHU216HW,2013-08-02 22:46:00,
2013-08-02 17:47:00,98.3,69.8,29.78,ESE,113,4.0,8.5,40,0.00,,,0.00,WUHU216HW,2013-08-02 22:47:00,
2013-08-02 17:48:00,98.1,69.8,29.79,SE,135,7.4,8.5,40,0.00,,,0.00,WUHU216HW,2013-08-02 22:48:00,
2013-08-02 17:49:00,97.9,69.6,29.79,ESE,113,4.7,8.5,40,0.00,,,0.00,WUHU216HW,2013-08-02 22:49:00,
2013-08-02 17:50:00,97.7,69.4,29.79,SE,135,8.9,8.9,40,0.00,,,0.00,WUHU216HW,2013-08-02 22:50:00,
2013-08-02 17:51:00,97.9,69.6,29.78,ESE,113,9.6,9.6,40,0.00,,,0.00,WUHU216HW,2013-08-02 22:51:00,
2013-08-02 17:52:00,97.9,69.6,29.79,ESE,113,9.8,9.8,40,0.00,,,0.00,WUHU216HW,2013-08-02 22:52:00,
2013-08-02 17:53:00,98.1,69.8,29.78,ESE,113,9.8,9.8,40,0.00,,,0.00,WUHU216HW,2013-08-02 22:53:00,
2013-08-02 17:54:00,98.1,70.4,29.78,ESE,113,6.3,9.8,41,0.00,,,0.00,WUHU216HW,2013-08-02 22:54:00,
2013-08-02 17:55:00,98.3,69.8,29.78,ESE,113,7.2,9.8,40,0.00,,,0.00,WUHU216HW,2013-08-02 22:55:00,
2013-08-02 17:56:00,98.3,69.8,29.78,ESE,113,6.3,9.8,40,0.00,,,0.00,WUHU216HW,2013-08-02 22:56:00,
2013-08-02 17:57:00,98.3,69.8,29.78,ESE,113,8.1,9.8,40,0.00,,,0.00,WUHU216HW,2013-08-02 22:57:00,
2013-08-02 17:58:00,98.5,70.8,29.78,East,90,5.1,9.8,41,0.00,,,0.00,WUHU216HW,2013-08-02 22:58:00,
2013-08-02 17:59:00,98.5,71.4,29.78,East,90,5.4,9.8,42,0.00,,,0.00,WUHU216HW,2013-08-02 22:59:00,
2013-08-02 18:00:00,98.5,70.8,29.78,ESE,113,5.6,9.8,41,0.00,,,0.00,WUHU216HW,2013-08-02 23:00:00,
2013-08-02 18:01:00,98.5,70.0,29.78,ESE,113,5.4,9.8,40,0.00,,,0.00,WUHU216HW,2013-08-02 23:01:00,
2013-08-02 18:02:00,98.5,70.8,29.78,SE,135,4.0,9.8,41,0.00,,,0.00,WUHU216HW,2013-08-02 23:02:00,
2013-08-02 18:03:00,98.5,70.8,29.78,ESE,113,6.0,9.8,41,0.00,,,0.00,WUHU216HW,2013-08-02 23:03:00,
2013-08-02 18:04:00,98.3,69.0,29.78,ESE,113,9.6,9.6,39,0.00,,,0.00,WUHU216HW,2013-08-02 23:04:00,
2013-08-02 18:05:00,98.3,69.0,29.78,ESE,113,9.2,9.6,39,0.00,,,0.00,WUHU216HW,2013-08-02 23:05:00,
2013-08-02 18:06:00,98.3,69.8,29.78,ESE,113,7.4,9.6,40,0.00,,,0.00,WUHU216HW,2013-08-02 23:06:00,
2013-08-02 18:07:00,98.3,70.6,29.78,East,90,4.0,9.6,41,0.00,,,0.00,WUHU216HW,2013-08-02 23:07:00,
2013-08-02 18:08:00,98.3,69.0,29.78,ESE,113,6.7,9.6,39,0.00,,,0.00,WUHU216HW,2013-08-02 23:08:00,
2013-08-02 18:09:00,98.5,70.0,29.78,ESE,113,8.3,9.6,40,0.00,,,0.00,WUHU216HW,2013-08-02 23:09:00,
2013-08-02 18:10:00,98.3,69.0,29.78,ESE,113,11.4,11.4,39,0.00,,,0.00,WUHU216HW,2013-08-02 23:10:00,
2013-08-02 18:11:00,98.5,69.2,29.78,ESE,113,9.8,11.4,39,0.00,,,0.00,WUHU216HW,2013-08-02 23:11:00,
2013-08-02 18:12:00,98.3,69.0,29.79,ESE,113,6.0,11.4,39,0.00,,,0.00,WUHU216HW,2013-08-02 23:12:00,
2013-08-02 18:13:00,98.3,69.8,29.78,ESE,113,6.7,11.4,40,0.00,,,0.00,WUHU216HW,2013-08-02 23:13:00,
2013-08-02 18:14:00,98.3,69.8,29.78,East,90,5.1,11.4,40,0.00,,,0.00,WUHU216HW,2013-08-02 23:14:00,
2013-08-02 18:15:00,98.3,69.8,29.78,SE,135,7.6,11.4,40,0.00,,,0.00,WUHU216HW,2013-08-02 23:15:00,
2013-08-02 18:16:00,98.3,69.8,29.79,East,90,6.9,11.4,40,0.00,,,0.00,WUHU216HW,2013-08-02 23:16:00,
2013-08-02 18:17:00,98.5,70.0,29.78,SE,135,4.9,11.4,40,0.00,,,0.00,WUHU216HW,2013-08-02 23:17:00,
2013-08-02 18:18:00,98.6,70.2,29.78,ESE,113,5.4,11.4,40,0.00,,,0.00,WUHU216HW,2013-08-02 23:18:00,
2013-08-02 18:19:00,98.6,70.2,29.79,SE,135,8.5,11.4,40,0.00,,,0.00,WUHU216HW,2013-08-02 23:19:00,
2013-08-02 18:20:00,98.6,69.4,29.79,ESE,113,8.9,9.8,39,0.00,,,0.00,WUHU216HW,2013-08-02 23:20:00,
2013-08-02 18:21:00,98.6,69.4,29.79,ENE,68,7.8,8.9,39,0.00,,,0.00,WUHU216HW,2013-08-02 23:21:00,
2013-08-02 18:22:00,98.6,69.4,29.78,ESE,113,10.7,10.7,39,0.00,,,0.00,WUHU216HW,2013-08-02 23:22:00,
2013-08-02 18:23:00,98.5,69.2,29.78,ESE,113,7.2,10.7,39,0.00,,,0.00,WUHU216HW,2013-08-02 23:23:00,
2013-08-02 18:24:00,98.5,69.2,29.78,SE,135,9.2,10.7,39,0.00,,,0.00,WUHU216HW,2013-08-02 23:24:00,
2013-08-02 18:25:00,98.3,69.8,29.78,ESE,113,8.3,10.7,40,0.00,,,0.00,WUHU216HW,2013-08-02 23:25:00,
2013-08-02 18:26:00,98.3,69.0,29.78,ESE,113,8.3,10.7,39,0.00,,,0.00,WUHU216HW,2013-08-02 23:26:00,
2013-08-02 18:27:00,98.3,69.0,29.78,East,90,8.3,10.7,39,0.00,,,0.00,WUHU216HW,2013-08-02 23:27:00,
2013-08-02 18:28:00,98.3,69.0,29.78,ESE,113,9.2,10.7,39,0.00,,,0.00,WUHU216HW,2013-08-02 23:28:00,
2013-08-02 18:29:00,98.3,69.8,29.78,ESE,113,5.6,10.7,40,0.00,,,0.00,WUHU216HW,2013-08-02 23:29:00,
2013-08-02 18:30:00,98.1,69.8,29.78,ESE,113,8.9,10.7,40,0.00,,,0.00,WUHU216HW,2013-08-02 23:30:00,
2013-08-02 18:31:00,98.1,69.8,29.78,SE,135,7.2,10.7,40,0.00,,,0.00,WUHU216HW,2013-08-02 23:31:00,
2013-08-02 18:32:00,98.1,68.9,29.78,ESE,113,7.4,9.2,39,0.00,,,0.00,WUHU216HW,2013-08-02 23:32:00,
2013-08-02 18:33:00,97.9,69.6,29.78,ESE,113,6.5,9.2,40,0.00,,,0.00,WUHU216HW,2013-08-02 23:33:00,
2013-08-02 18:34:00,98.1,69.8,29.79,SE,135,6.0,9.2,40,0.00,,,0.00,WUHU216HW,2013-08-02 23:34:00,
2013-08-02 18:35:00,97.9,69.6,29.78,East,90,8.5,9.2,40,0.00,,,0.00,WUHU216HW,2013-08-02 23:35:00,
2013-08-02 18:36:00,97.9,69.6,29.79,SE,135,6.3,9.2,40,0.00,,,0.00,WUHU216HW,2013-08-02 23:36:00,
2013-08-02 18:37:00,97.9,69.6,29.78,ESE,113,4.9,9.2,40,0.00,,,0.00,WUHU216HW,2013-08-02 23:37:00,
2013-08-02 18:38:00,97.7,69.4,29.79,ENE,68,6.5,8.9,40,0.00,,,0.00,WUHU216HW,2013-08-02 23:38:00,
2013-08-02 18:39:00,97.6,69.2,29.79,ENE,68,6.3,8.9,40,0.00,,,0.00,WUHU216HW,2013-08-02 23:39:00,
2013-08-02 18:40:00,97.6,69.9,29.78,ESE,113,6.7,8.5,41,0.00,,,0.00,WUHU216HW,2013-08-02 23:40:00,
2013-08-02 18:41:00,97.4,69.0,29.79,ESE,113,6.7,8.5,40,0.00,,,0.00,WUHU216HW,2013-08-02 23:41:00,
2013-08-02 18:42:00,97.4,69.8,29.79,ESE,113,5.1,8.5,41,0.00,,,0.00,WUHU216HW,2013-08-02 23:42:00,
2013-08-02 18:43:00,97.2,69.6,29.79,ENE,68,5.1,8.5,41,0.00,,,0.00,WUHU216HW,2013-08-02 23:43:00,
2013-08-02 18:44:00,97.2,69.6,29.79,ESE,113,5.8,8.5,41,0.00,,,0.00,WUHU216HW,2013-08-02 23:44:00,
2013-08-02 18:45:00,97.2,69.0,29.79,ESE,113,6.3,6.7,40,0.00,,,0.00,WUHU216HW,2013-08-02 23:45:00,
2013-08-02 18:46:00,97.2,69.0,29.79,ESE,113,8.1,8.1,40,0.00,,,0.00,WUHU216HW,2013-08-02 23:46:00,
2013-08-02 18:47:00,97.0,69.4,29.79,East,90,9.2,9.2,41,0.00,,,0.00,WUHU216HW,2013-08-02 23:47:00,
2013-08-02 18:48:00,97.2,69.6,29.79,ESE,113,6.5,9.2,41,0.00,,,0.00,WUHU216HW,2013-08-02 23:48:00,
2013-08-02 18:49:00,97.2,69.6,29.79,ESE,113,6.3,9.2,41,0.00,,,0.00,WUHU216HW,2013-08-02 23:49:00,
2013-08-02 18:50:00,97.0,68.8,29.79,ESE,113,8.9,9.2,40,0.00,,,0.00,WUHU216HW,2013-08-02 23:50:00,
2013-08-02 18:51:00,97.0,69.4,29.79,ESE,113,7.4,9.2,41,0.00,,,0.00,WUHU216HW,2013-08-02 23:51:00,
2013-08-02 18:52:00,97.0,69.4,29.79,ESE,113,4.7,9.2,41,0.00,,,0.00,WUHU216HW,2013-08-02 23:52:00,
2013-08-02 18:53:00,96.8,69.9,29.79,East,90,4.5,9.2,42,0.00,,,0.00,WUHU216HW,2013-08-02 23:53:00,
2013-08-02 18:54:00,96.8,69.2,29.79,East,90,5.4,9.2,41,0.00,,,0.00,WUHU216HW,2013-08-02 23:54:00,
2013-08-02 18:55:00,96.8,69.2,29.79,ESE,113,5.4,9.2,41,0.00,,,0.00,WUHU216HW,2013-08-02 23:55:00,
2013-08-02 18:56:00,96.8,69.2,29.79,ESE,113,7.4,9.2,41,0.00,,,0.00,WUHU216HW,2013-08-02 23:56:00,
2013-08-02 18:57:00,96.8,69.2,29.79,East,90,7.4,8.9,41,0.00,,,0.00,WUHU216HW,2013-08-02 23:57:00,
2013-08-02 18:58:00,96.8,69.9,29.79,ESE,113,3.8,8.9,42,0.00,,,0.00,WUHU216HW,2013-08-02 23:58:00,
2013-08-02 18:59:00,96.7,69.8,29.79,ENE,68,5.8,8.9,42,0.00,,,0.00,WUHU216HW,2013-08-02 23:59:00,
2013-08-02 19:00:00,96.7,69.8,29.79,East,90,5.4,8.9,42,0.00,,,0.00,WUHU216HW,2013-08-03 00:00:00,
2013-08-02 19:01:00,96.7,69.8,29.79,East,90,4.0,7.4,42,0.00,,,0.00,WUHU216HW,2013-08-03 00:01:00,
2013-08-02 19:02:00,96.7,69.8,29.79,SE,135,6.7,7.4,42,0.00,,,0.00,WUHU216HW,2013-08-03 00:02:00,
2013-08-02 19:03:00,96.5,69.6,29.79,East,90,4.0,7.4,42,0.00,,,0.00,WUHU216HW,2013-08-03 00:03:00,
2013-08-02 19:04:00,96.5,69.6,29.79,ESE,113,3.6,7.4,42,0.00,,,0.00,WUHU216HW,2013-08-03 00:04:00,
2013-08-02 19:05:00,96.5,69.6,29.79,ESE,113,6.0,7.4,42,0.00,,,0.00,WUHU216HW,2013-08-03 00:05:00,
2013-08-02 19:06:00,96.5,69.6,29.79,ESE,113,5.4,7.4,42,0.00,,,0.00,WUHU216HW,2013-08-03 00:06:00,
2013-08-02 19:07:00,96.5,69.6,29.79,ESE,113,6.3,7.4,42,0.00,,,0.00,WUHU216HW,2013-08-03 00:07:00,
2013-08-02 19:08:00,96.5,69.6,29.79,ESE,113,6.9,6.9,42,0.00,,,0.00,WUHU216HW,2013-08-03 00:08:00,
2013-08-02 19:09:00,96.5,69.6,29.79,East,90,6.0,6.9,42,0.00,,,0.00,WUHU216HW,2013-08-03 00:09:00,
2013-08-02 19:10:00,96.5,69.6,29.79,ESE,113,5.1,6.9,42,0.00,,,0.00,WUHU216HW,2013-08-03 00:10:00,
2013-08-02 19:11:00,96.5,70.3,29.79,East,90,4.0,6.9,43,0.00,,,0.00,WUHU216HW,2013-08-03 00:11:00,
2013-08-02 19:12:00,96.5,70.3,29.79,East,90,4.7,6.9,43,0.00,,,0.00,WUHU216HW,2013-08-03 00:12:00,
2013-08-02 19:13:00,96.3,70.1,29.79,ESE,113,7.6,7.6,43,0.00,,,0.00,WUHU216HW,2013-08-03 00:13:00,
2013-08-02 19:14:00,96.3,69.4,29.79,ESE,113,5.4,7.6,42,0.00,,,0.00,WUHU216HW,2013-08-03 00:14:00,
2013-08-02 19:15:00,96.3,70.1,29.79,ESE,113,6.3,7.6,43,0.00,,,0.00,WUHU216HW,2013-08-03 00:15:00,
2013-08-02 19:16:00,96.1,69.9,29.79,ESE,113,6.3,7.6,43,0.00,,,0.00,WUHU216HW,2013-08-03 00:16:00,
2013-08-02 19:17:00,96.1,69.3,29.79,ESE,113,4.3,7.6,42,0.00,,,0.00,WUHU216HW,2013-08-03 00:17:00,
2013-08-02 19:18:00,96.1,69.3,29.79,ESE,113,3.8,7.6,42,0.00,,,0.00,WUHU216HW,2013-08-03 00:18:00,
2013-08-02 19:19:00,96.1,69.3,29.79,SE,135,6.3,7.6,42,0.00,,,0.00,WUHU216HW,2013-08-03 00:19:00,
2013-08-02 19:20:00,96.1,69.3,29.79,ESE,113,6.9,7.6,42,0.00,,,0.00,WUHU216HW,2013-08-03 00:20:00,
2013-08-02 19:21:00,96.1,69.9,29.79,ESE,113,4.7,7.6,43,0.00,,,0.00,WUHU216HW,2013-08-03 00:21:00,
2013-08-02 19:22:00,96.1,69.9,29.79,ESE,113,2.9,7.6,43,0.00,,,0.00,WUHU216HW,2013-08-03 00:22:00,
2013-08-02 19:23:00,95.9,69.8,29.79,ESE,113,7.2,7.2,43,0.00,,,0.00,WUHU216HW,2013-08-03 00:23:00,
2013-08-02 19:24:00,95.9,69.8,29.79,SSE,158,4.7,7.2,43,0.00,,,0.00,WUHU216HW,2013-08-03 00:24:00,
2013-08-02 19:25:00,95.9,69.8,29.79,ESE,113,4.7,7.2,43,0.00,,,0.00,WUHU216HW,2013-08-03 00:25:00,
2013-08-02 19:26:00,95.9,69.8,29.79,SE,135,6.7,7.2,43,0.00,,,0.00,WUHU216HW,2013-08-03 00:26:00,
2013-08-02 19:27:00,95.9,69.1,29.79,ESE,113,6.0,7.2,42,0.00,,,0.00,WUHU216HW,2013-08-03 00:27:00,
2013-08-02 19:28:00,95.9,69.8,29.79,ESE,113,5.1,7.2,43,0.00,,,0.00,WUHU216HW,2013-08-03 00:28:00,
2013-08-02 19:29:00,95.9,69.1,29.79,ESE,113,6.3,7.2,42,0.00,,,0.00,WUHU216HW,2013-08-03 00:29:00,
2013-08-02 19:30:00,95.8,69.6,29.79,SE,135,5.6,7.2,43,0.00,,,0.00,WUHU216HW,2013-08-03 00:30:00,
2013-08-02 19:31:00,95.8,69.6,29.79,ESE,113,6.0,7.2,43,0.00,,,0.00,WUHU216HW,2013-08-03 00:31:00,
2013-08-02 19:32:00,95.8,69.6,29.79,SE,135,7.6,7.6,43,0.00,,,0.00,WUHU216HW,2013-08-03 00:32:00,
2013-08-02 19:33:00,95.8,69.6,29.79,ESE,113,6.5,7.6,43,0.00,,,0.00,WUHU216HW,2013-08-03 00:33:00,
2013-08-02 19:34:00,95.8,69.6,29.79,ESE,113,4.7,7.6,43,0.00,,,0.00,WUHU216HW,2013-08-03 00:34:00,
2013-08-02 19:35:00,95.6,69.5,29.79,SSE,158,4.7,7.6,43,0.00,,,0.00,WUHU216HW,2013-08-03 00:35:00,
2013-08-02 19:36:00,95.4,69.3,29.78,ESE,113,4.9,7.6,43,0.00,,,0.00,WUHU216HW,2013-08-03 00:36:00,
2013-08-02 19:37:00,95.4,69.3,29.79,ESE,113,3.6,7.6,43,0.00,,,0.00,WUHU216HW,2013-08-03 00:37:00,
2013-08-02 19:38:00,95.2,69.8,29.79,SE,135,3.8,7.6,44,0.00,,,0.00,WUHU216HW,2013-08-03 00:38:00,
2013-08-02 19:39:00,95.2,69.8,29.79,ESE,113,5.4,7.6,44,0.00,,,0.00,WUHU216HW,2013-08-03 00:39:00,
2013-08-02 19:40:00,95.0,69.7,29.79,East,90,5.8,7.6,44,0.00,,,0.00,WUHU216HW,2013-08-03 00:40:00,
2013-08-02 19:41:00,95.0,69.7,29.79,ESE,113,6.3,7.6,44,0.00,,,0.00,WUHU216HW,2013-08-03 00:41:00,
2013-08-02 19:42:00,94.9,70.1,29.79,ESE,113,4.7,6.5,45,0.00,,,0.00,WUHU216HW,2013-08-03 00:42:00,
2013-08-02 19:43:00,94.9,70.1,29.78,SE,135,4.3,6.3,45,0.00,,,0.00,WUHU216HW,2013-08-03 00:43:00,
2013-08-02 19:44:00,94.7,69.9,29.79,East,90,2.5,6.3,45,0.00,,,0.00,WUHU216HW,2013-08-03 00:44:00,
2013-08-02 19:45:00,94.7,69.9,29.79,ESE,113,2.7,6.3,45,0.00,,,0.00,WUHU216HW,2013-08-03 00:45:00,
2013-08-02 19:46:00,94.7,69.9,29.79,ESE,113,3.8,6.3,45,0.00,,,0.00,WUHU216HW,2013-08-03 00:46:00,
2013-08-02 19:47:00,94.5,69.8,29.79,ESE,113,6.5,6.5,45,0.00,,,0.00,WUHU216HW,2013-08-03 00:47:00,
2013-08-02 19:48:00,94.5,69.8,29.79,East,90,2.9,6.5,45,0.00,,,0.00,WUHU216HW,2013-08-03 00:48:00,
2013-08-02 19:49:00,94.5,70.5,29.79,ESE,113,4.7,6.5,46,0.00,,,0.00,WUHU216HW,2013-08-03 00:49:00,
2013-08-02 19:50:00,94.3,70.3,29.79,SE,135,5.1,6.5,46,0.00,,,0.00,WUHU216HW,2013-08-03 00:50:00,
2013-08-02 19:51:00,94.3,70.3,29.79,East,90,6.5,6.5,46,0.00,,,0.00,WUHU216HW,2013-08-03 00:51:00,
2013-08-02 19:52:00,94.3,70.3,29.79,SE,135,4.5,6.5,46,0.00,,,0.00,WUHU216HW,2013-08-03 00:52:00,
2013-08-02 19:53:00,94.1,70.1,29.79,ESE,113,3.4,6.5,46,0.00,,,0.00,WUHU216HW,2013-08-03 00:53:00,
2013-08-02 19:54:00,94.0,70.6,29.79,ESE,113,4.0,6.5,47,0.00,,,0.00,WUHU216HW,2013-08-03 00:54:00,
2013-08-02 19:55:00,94.0,70.6,29.79,ESE,113,4.9,6.5,47,0.00,,,0.00,WUHU216HW,2013-08-03 00:55:00,
2013-08-02 19:56:00,94.0,70.6,29.79,ESE,113,2.5,6.5,47,0.00,,,0.00,WUHU216HW,2013-08-03 00:56:00,
2013-08-02 19:57:00,93.8,70.4,29.79,ESE,113,2.5,6.5,47,0.00,,,0.00,WUHU216HW,2013-08-03 00:57:00,
2013-08-02 19:58:00,93.6,70.2,29.79,East,90,2.9,6.5,47,0.00,,,0.00,WUHU216HW,2013-08-03 00:58:00,
2013-08-02 19:59:00,93.6,70.2,29.79,East,90,2.5,6.5,47,0.00,,,0.00,WUHU216HW,2013-08-03 00:59:00,
2013-08-02 20:00:00,93.6,70.2,29.79,East,90,2.7,6.5,47,0.00,,,0.00,WUHU216HW,2013-08-03 01:00:00,
2013-08-02 20:01:00,93.4,70.8,29.79,ESE,113,4.0,6.5,48,0.00,,,0.00,WUHU216HW,2013-08-03 01:01:00,
2013-08-02 20:02:00,93.2,70.6,29.79,East,90,2.5,4.9,48,0.00,,,0.00,WUHU216HW,2013-08-03 01:02:00,
2013-08-02 20:03:00,93.2,70.6,29.79,ESE,113,3.6,4.9,48,0.00,,,0.00,WUHU216HW,2013-08-03 01:03:00,
2013-08-02 20:04:00,93.2,70.6,29.80,SE,135,4.7,4.9,48,0.00,,,0.00,WUHU216HW,2013-08-03 01:04:00,
2013-08-02 20:05:00,93.1,70.4,29.79,ESE,113,4.7,4.9,48,0.00,,,0.00,WUHU216HW,2013-08-03 01:05:00,
2013-08-02 20:06:00,93.1,70.4,29.79,ESE,113,3.1,4.7,48,0.00,,,0.00,WUHU216HW,2013-08-03 01:06:00,
2013-08-02 20:07:00,93.1,70.4,29.79,ESE,113,2.9,4.7,48,0.00,,,0.00,WUHU216HW,2013-08-03 01:07:00,
2013-08-02 20:08:00,92.9,70.2,29.79,ESE,113,2.7,4.7,48,0.00,,,0.00,WUHU216HW,2013-08-03 01:08:00,
2013-08-02 20:09:00,92.9,70.2,29.79,SE,135,6.3,6.3,48,0.00,,,0.00,WUHU216HW,2013-08-03 01:09:00,
2013-08-02 20:10:00,92.7,70.0,29.79,ESE,113,5.6,6.3,48,0.00,,,0.00,WUHU216HW,2013-08-03 01:10:00,
2013-08-02 20:11:00,92.7,70.0,29.79,ENE,68,4.3,6.3,48,0.00,,,0.00,WUHU216HW,2013-08-03 01:11:00,
2013-08-02 20:12:00,92.7,70.7,29.79,ESE,113,2.7,6.3,49,0.00,,,0.00,WUHU216HW,2013-08-03 01:12:00,
2013-08-02 20:13:00,92.5,70.6,29.79,ESE,113,4.5,6.3,49,0.00,,,0.00,WUHU216HW,2013-08-03 01:13:00,
2013-08-02 20:14:00,92.5,70.6,29.80,ESE,113,4.5,6.3,49,0.00,,,0.00,WUHU216HW,2013-08-03 01:14:00,
2013-08-02 20:15:00,92.5,70.6,29.80,ESE,113,4.0,6.3,49,0.00,,,0.00,WUHU216HW,2013-08-03 01:15:00,
2013-08-02 20:16:00,92.3,70.4,29.80,SE,135,5.4,6.3,49,0.00,,,0.00,WUHU216HW,2013-08-03 01:16:00,
2013-08-02 20:17:00,92.3,70.4,29.80,ESE,113,4.5,6.3,49,0.00,,,0.00,WUHU216HW,2013-08-03 01:17:00,
2013-08-02 20:18:00,92.2,70.2,29.80,ESE,113,2.7,6.3,49,0.00,,,0.00,WUHU216HW,2013-08-03 01:18:00,
2013-08-02 20:19:00,92.2,70.2,29.79,ESE,113,5.4,5.6,49,0.00,,,0.00,WUHU216HW,2013-08-03 01:19:00,
2013-08-02 20:20:00,92.0,70.0,29.80,ESE,113,4.7,5.4,49,0.00,,,0.00,WUHU216HW,2013-08-03 01:20:00,
2013-08-02 20:21:00,92.0,70.7,29.80,ESE,113,3.8,5.4,50,0.00,,,0.00,WUHU216HW,2013-08-03 01:21:00,
2013-08-02 20:22:00,92.0,70.7,29.79,East,90,3.4,5.4,50,0.00,,,0.00,WUHU216HW,2013-08-03 01:22:00,
2013-08-02 20:23:00,91.8,70.6,29.80,East,90,4.7,5.4,50,0.00,,,0.00,WUHU216HW,2013-08-03 01:23:00,
2013-08-02 20:24:00,91.8,70.6,29.79,ESE,113,4.7,5.4,50,0.00,,,0.00,WUHU216HW,2013-08-03 01:24:00,
2013-08-02 20:25:00,91.8,70.6,29.80,East,90,3.6,5.4,50,0.00,,,0.00,WUHU216HW,2013-08-03 01:25:00,
2013-08-02 20:26:00,91.8,70.6,29.79,ESE,113,2.9,5.4,50,0.00,,,0.00,WUHU216HW,2013-08-03 01:26:00,
2013-08-02 20:27:00,91.6,70.4,29.80,ESE,113,2.9,5.4,50,0.00,,,0.00,WUHU216HW,2013-08-03 01:27:00,
2013-08-02 20:28:00,91.6,70.4,29.80,ESE,113,5.4,5.4,50,0.00,,,0.00,WUHU216HW,2013-08-03 01:28:00,
2013-08-02 20:29:00,91.6,70.4,29.80,ENE,68,4.7,5.4,50,0.00,,,0.00,WUHU216HW,2013-08-03 01:29:00,
2013-08-02 20:30:00,91.6,70.4,29.80,ESE,113,3.4,5.4,50,0.00,,,0.00,WUHU216HW,2013-08-03 01:30:00,
2013-08-02 20:31:00,91.4,70.7,29.80,ESE,113,2.9,5.4,51,0.00,,,0.00,WUHU216HW,2013-08-03 01:31:00,
2013-08-02 20:32:00,91.4,70.7,29.80,ESE,113,5.4,5.4,51,0.00,,,0.00,WUHU216HW,2013-08-03 01:32:00,
2013-08-02 20:33:00,91.4,70.7,29.80,East,90,1.8,5.4,51,0.00,,,0.00,WUHU216HW,2013-08-03 01:33:00,
2013-08-02 20:34:00,91.4,70.7,29.80,ESE,113,1.8,5.4,51,0.00,,,0.00,WUHU216HW,2013-08-03 01:34:00,
2013-08-02 20:35:00,91.3,70.6,29.80,East,90,3.4,5.4,51,0.00,,,0.00,WUHU216HW,2013-08-03 01:35:00,
2013-08-02 20:36:00,91.3,70.6,29.80,ESE,113,1.8,5.4,51,0.00,,,0.00,WUHU216HW,2013-08-03 01:36:00,
2013-08-02 20:37:00,91.1,70.4,29.80,ESE,113,4.3,5.4,51,0.00,,,0.00,WUHU216HW,2013-08-03 01:37:00,
2013-08-02 20:38:00,91.1,70.9,29.80,ESE,113,3.8,5.4,52,0.00,,,0.00,WUHU216HW,2013-08-03 01:38:00,
2013-08-02 20:39:00,91.1,70.9,29.80,ESE,113,4.0,5.4,52,0.00,,,0.00,WUHU216HW,2013-08-03 01:39:00,
2013-08-02 20:40:00,90.9,70.8,29.80,ESE,113,3.4,5.4,52,0.00,,,0.00,WUHU216HW,2013-08-03 01:40:00,
2013-08-02 20:41:00,90.9,70.8,29.80,ESE,113,3.8,5.4,52,0.00,,,0.00,WUHU216HW,2013-08-03 01:41:00,
2013-08-02 20:42:00,90.7,70.7,29.80,ESE,113,2.7,4.3,52,0.00,,,0.00,WUHU216HW,2013-08-03 01:42:00,
2013-08-02 20:43:00,90.7,70.7,29.80,ESE,113,2.2,4.3,52,0.00,,,0.00,WUHU216HW,2013-08-03 01:43:00,
2013-08-02 20:44:00,90.7,70.7,29.80,ENE,68,1.8,4.3,52,0.00,,,0.00,WUHU216HW,2013-08-03 01:44:00,
2013-08-02 20:45:00,90.5,71.0,29.80,East,90,2.9,4.3,53,0.00,,,0.00,WUHU216HW,2013-08-03 01:45:00,
2013-08-02 20:46:00,90.5,71.0,29.80,ENE,68,3.4,4.3,53,0.00,,,0.00,WUHU216HW,2013-08-03 01:46:00,
2013-08-02 20:47:00,90.4,70.8,29.80,East,90,4.7,4.7,53,0.00,,,0.00,WUHU216HW,2013-08-03 01:47:00,
2013-08-02 20:48:00,90.4,70.8,29.80,East,90,1.8,4.7,53,0.00,,,0.00,WUHU216HW,2013-08-03 01:48:00,
2013-08-02 20:49:00,90.4,70.8,29.80,ESE,113,3.8,4.7,53,0.00,,,0.00,WUHU216HW,2013-08-03 01:49:00,
2013-08-02 20:50:00,90.4,70.8,29.80,ESE,113,3.1,4.7,53,0.00,,,0.00,WUHU216HW,2013-08-03 01:50:00,
2013-08-02 20:51:00,90.2,70.7,29.80,ENE,68,2.2,4.7,53,0.00,,,0.00,WUHU216HW,2013-08-03 01:51:00,
2013-08-02 20:52:00,90.2,71.2,29.80,SE,135,2.9,4.7,54,0.00,,,0.00,WUHU216HW,2013-08-03 01:52:00,
2013-08-02 20:53:00,90.0,71.1,29.80,East,90,2.2,4.7,54,0.00,,,0.00,WUHU216HW,2013-08-03 01:53:00,
2013-08-02 20:54:00,90.0,71.1,29.80,SE,135,3.1,4.7,54,0.00,,,0.00,WUHU216HW,2013-08-03 01:54:00,
2013-08-02 20:55:00,90.0,71.1,29.80,East,90,4.0,4.7,54,0.00,,,0.00,WUHU216HW,2013-08-03 01:55:00,
2013-08-02 20:56:00,90.0,71.1,29.80,ESE,113,5.1,5.1,54,0.00,,,0.00,WUHU216HW,2013-08-03 01:56:00,
2013-08-02 20:57:00,89.8,70.9,29.81,East,90,4.0,5.1,54,0.00,,,0.00,WUHU216HW,2013-08-03 01:57:00,
2013-08-02 20:58:00,90.0,71.1,29.80,ESE,113,2.9,5.1,54,0.00,,,0.00,WUHU216HW,2013-08-03 01:58:00,
2013-08-02 20:59:00,90.0,71.1,29.81,SE,135,3.6,5.1,54,0.00,,,0.00,WUHU216HW,2013-08-03 01:59:00,
2013-08-02 21:00:00,90.0,71.1,29.81,ESE,113,4.7,5.1,54,0.00,,,0.00,WUHU216HW,2013-08-03 02:00:00,
2013-08-02 21:01:00,90.0,71.1,29.80,ESE,113,4.7,5.1,54,0.00,,,0.00,WUHU216HW,2013-08-03 02:01:00,
2013-08-02 21:02:00,90.0,71.1,29.80,ESE,113,3.6,5.1,54,0.00,,,0.00,WUHU216HW,2013-08-03 02:02:00,
2013-08-02 21:03:00,90.0,71.1,29.80,SE,135,3.8,5.1,54,0.00,,,0.00,WUHU216HW,2013-08-03 02:03:00,
2013-08-02 21:04:00,89.8,70.9,29.81,ESE,113,4.0,5.1,54,0.00,,,0.00,WUHU216HW,2013-08-03 02:04:00,
2013-08-02 21:05:00,89.8,70.9,29.80,SE,135,4.0,5.1,54,0.00,,,0.00,WUHU216HW,2013-08-03 02:05:00,
2013-08-02 21:06:00,89.8,70.9,29.80,ESE,113,4.5,5.1,54,0.00,,,0.00,WUHU216HW,2013-08-03 02:06:00,
2013-08-02 21:07:00,89.6,71.3,29.81,ESE,113,2.9,4.7,55,0.00,,,0.00,WUHU216HW,2013-08-03 02:07:00,
2013-08-02 21:08:00,89.6,71.3,29.81,ESE,113,3.4,4.7,55,0.00,,,0.00,WUHU216HW,2013-08-03 02:08:00,
2013-08-02 21:09:00,89.6,71.3,29.81,ESE,113,4.7,4.7,55,0.00,,,0.00,WUHU216HW,2013-08-03 02:09:00,
2013-08-02 21:10:00,89.6,71.3,29.81,SE,135,4.0,4.7,55,0.00,,,0.00,WUHU216HW,2013-08-03 02:10:00,
2013-08-02 21:11:00,89.5,71.1,29.81,SE,135,2.9,4.7,55,0.00,,,0.00,WUHU216HW,2013-08-03 02:11:00,
2013-08-02 21:12:00,89.5,71.1,29.81,East,90,4.7,4.7,55,0.00,,,0.00,WUHU216HW,2013-08-03 02:12:00,
2013-08-02 21:13:00,89.5,71.6,29.81,SE,135,4.9,4.9,56,0.00,,,0.00,WUHU216HW,2013-08-03 02:13:00,
2013-08-02 21:14:00,89.3,71.5,29.81,ESE,113,3.8,4.9,56,0.00,,,0.00,WUHU216HW,2013-08-03 02:14:00,
2013-08-02 21:15:00,89.3,71.5,29.81,SE,135,2.2,4.9,56,0.00,,,0.00,WUHU216HW,2013-08-03 02:15:00,
2013-08-02 21:16:00,89.3,71.5,29.81,ESE,113,3.1,4.9,56,0.00,,,0.00,WUHU216HW,2013-08-03 02:16:00,
2013-08-02 21:17:00,89.1,71.4,29.81,ESE,113,4.0,4.9,56,0.00,,,0.00,WUHU216HW,2013-08-03 02:17:00,
2013-08-02 21:18:00,89.1,71.4,29.81,ESE,113,2.2,4.9,56,0.00,,,0.00,WUHU216HW,2013-08-03 02:18:00,
2013-08-02 21:19:00,89.1,71.4,29.81,ESE,113,4.7,4.9,56,0.00,,,0.00,WUHU216HW,2013-08-03 02:19:00,
2013-08-02 21:20:00,89.1,71.4,29.81,ESE,113,3.4,4.9,56,0.00,,,0.00,WUHU216HW,2013-08-03 02:20:00,
2013-08-02 21:21:00,89.1,71.4,29.81,East,90,4.3,4.9,56,0.00,,,0.00,WUHU216HW,2013-08-03 02:21:00,
2013-08-02 21:22:00,89.1,71.4,29.81,ESE,113,4.7,4.9,56,0.00,,,0.00,WUHU216HW,2013-08-03 02:22:00,
2013-08-02 21:23:00,89.1,71.4,29.81,ESE,113,3.4,4.7,56,0.00,,,0.00,WUHU216HW,2013-08-03 02:23:00,
2013-08-02 21:24:00,88.9,71.2,29.81,ESE,113,5.6,5.6,56,0.00,,,0.00,WUHU216HW,2013-08-03 02:24:00,
2013-08-02 21:25:00,88.9,71.2,29.81,SE,135,5.1,5.6,56,0.00,,,0.00,WUHU216HW,2013-08-03 02:25:00,
2013-08-02 21:26:00,88.9,71.2,29.81,East,90,2.7,5.6,56,0.00,,,0.00,WUHU216HW,2013-08-03 02:26:00,
2013-08-02 21:27:00,89.1,71.4,29.81,ESE,113,4.7,5.6,56,0.00,,,0.00,WUHU216HW,2013-08-03 02:27:00,
2013-08-02 21:28:00,89.1,71.4,29.81,ESE,113,5.8,5.8,56,0.00,,,0.00,WUHU216HW,2013-08-03 02:28:00,
2013-08-02 21:29:00,89.1,71.4,29.81,ESE,113,3.6,5.8,56,0.00,,,0.00,WUHU216HW,2013-08-03 02:29:00,
2013-08-02 21:30:00,89.1,71.4,29.81,SSE,158,5.4,5.8,56,0.00,,,0.00,WUHU216HW,2013-08-03 02:30:00,
2013-08-02 21:31:00,88.9,71.2,29.81,ESE,113,7.2,7.2,56,0.00,,,0.00,WUHU216HW,2013-08-03 02:31:00,
2013-08-02 21:32:00,89.1,71.4,29.81,SE,135,4.7,7.2,56,0.00,,,0.00,WUHU216HW,2013-08-03 02:32:00,
2013-08-02 21:33:00,89.1,71.4,29.81,SE,135,3.6,7.2,56,0.00,,,0.00,WUHU216HW,2013-08-03 02:33:00,
2013-08-02 21:34:00,89.1,71.4,29.81,ESE,113,6.3,7.2,56,0.00,,,0.00,WUHU216HW,2013-08-03 02:34:00,
2013-08-02 21:35:00,89.1,71.4,29.81,ESE,113,5.4,7.2,56,0.00,,,0.00,WUHU216HW,2013-08-03 02:35:00,
2013-08-02 21:36:00,89.1,71.4,29.81,East,90,4.7,7.2,56,0.00,,,0.00,WUHU216HW,2013-08-03 02:36:00,
2013-08-02 21:37:00,89.1,71.4,29.81,ESE,113,5.1,7.2,56,0.00,,,0.00,WUHU216HW,2013-08-03 02:37:00,
2013-08-02 21:38:00,89.1,71.4,29.81,ESE,113,4.0,7.2,56,0.00,,,0.00,WUHU216HW,2013-08-03 02:38:00,
2013-08-02 21:39:00,89.1,71.4,29.81,SE,135,4.0,7.2,56,0.00,,,0.00,WUHU216HW,2013-08-03 02:39:00,
2013-08-02 21:40:00,89.1,71.9,29.81,ESE,113,4.0,7.2,57,0.00,,,0.00,WUHU216HW,2013-08-03 02:40:00,
2013-08-02 21:41:00,88.9,71.7,29.82,SE,135,4.3,6.3,57,0.00,,,0.00,WUHU216HW,2013-08-03 02:41:00,
2013-08-02 21:42:00,88.9,71.7,29.82,ESE,113,4.7,6.3,57,0.00,,,0.00,WUHU216HW,2013-08-03 02:42:00,
2013-08-02 21:43:00,88.9,71.7,29.81,SE,135,5.4,6.3,57,0.00,,,0.00,WUHU216HW,2013-08-03 02:43:00,
2013-08-02 21:44:00,88.9,71.7,29.82,ESE,113,6.3,6.3,57,0.00,,,0.00,WUHU216HW,2013-08-03 02:44:00,
2013-08-02 21:45:00,88.9,71.7,29.82,ESE,113,6.3,6.3,57,0.00,,,0.00,WUHU216HW,2013-08-03 02:45:00,
2013-08-02 21:46:00,88.9,71.7,29.82,SE,135,5.4,6.3,57,0.00,,,0.00,WUHU216HW,2013-08-03 02:46:00,
2013-08-02 21:47:00,88.9,71.7,29.82,SE,135,5.4,6.3,57,0.00,,,0.00,WUHU216HW,2013-08-03 02:47:00,
2013-08-02 21:48:00,88.9,71.7,29.82,ESE,113,4.7,6.3,57,0.00,,,0.00,WUHU216HW,2013-08-03 02:48:00,
2013-08-02 21:49:00,88.9,71.7,29.82,ESE,113,4.7,6.3,57,0.00,,,0.00,WUHU216HW,2013-08-03 02:49:00,
2013-08-02 21:50:00,88.9,71.7,29.82,SSE,158,4.0,6.3,57,0.00,,,0.00,WUHU216HW,2013-08-03 02:50:00,
2013-08-02 21:51:00,88.9,71.7,29.82,ESE,113,6.9,6.9,57,0.00,,,0.00,WUHU216HW,2013-08-03 02:51:00,
2013-08-02 21:52:00,88.9,71.7,29.82,ESE,113,4.7,6.9,57,0.00,,,0.00,WUHU216HW,2013-08-03 02:52:00,
2013-08-02 21:53:00,88.7,71.6,29.82,ESE,113,5.1,6.9,57,0.00,,,0.00,WUHU216HW,2013-08-03 02:53:00,
2013-08-02 21:54:00,88.7,71.6,29.82,ESE,113,8.1,8.1,57,0.00,,,0.00,WUHU216HW,2013-08-03 02:54:00,
2013-08-02 21:55:00,88.7,71.6,29.82,ESE,113,4.9,8.1,57,0.00,,,0.00,WUHU216HW,2013-08-03 02:55:00,
2013-08-02 21:56:00,88.7,71.6,29.82,ESE,113,4.0,8.1,57,0.00,,,0.00,WUHU216HW,2013-08-03 02:56:00,
2013-08-02 21:57:00,88.7,71.6,29.82,SE,135,6.3,8.1,57,0.00,,,0.00,WUHU216HW,2013-08-03 02:57:00,
2013-08-02 21:58:00,88.7,71.6,29.82,ESE,113,4.9,8.1,57,0.00,,,0.00,WUHU216HW,2013-08-03 02:58:00,
2013-08-02 21:59:00,88.7,71.6,29.82,ESE,113,4.3,8.1,57,0.00,,,0.00,WUHU216HW,2013-08-03 02:59:00,
2013-08-02 22:00:00,88.6,71.4,29.82,ESE,113,6.0,8.1,57,0.00,,,0.00,WUHU216HW,2013-08-03 03:00:00,
2013-08-02 22:01:00,88.6,71.4,29.82,ESE,113,4.3,8.1,57,0.00,,,0.00,WUHU216HW,2013-08-03 03:01:00,
2013-08-02 22:02:00,88.6,71.4,29.82,SE,135,3.6,8.1,57,0.00,,,0.00,WUHU216HW,2013-08-03 03:02:00,
2013-08-02 22:03:00,88.6,71.4,29.82,SE,135,4.9,8.1,57,0.00,,,0.00,WUHU216HW,2013-08-03 03:03:00,
2013-08-02 22:04:00,88.6,71.4,29.82,ESE,113,5.6,8.1,57,0.00,,,0.00,WUHU216HW,2013-08-03 03:04:00,
2013-08-02 22:05:00,88.6,71.4,29.82,ESE,113,5.4,6.3,57,0.00,,,0.00,WUHU216HW,2013-08-03 03:05:00,
2013-08-02 22:06:00,88.6,71.4,29.82,ESE,113,5.4,6.3,57,0.00,,,0.00,WUHU216HW,2013-08-03 03:06:00,
2013-08-02 22:07:00,88.6,71.4,29.82,ESE,113,5.6,6.3,57,0.00,,,0.00,WUHU216HW,2013-08-03 03:07:00,
2013-08-02 22:08:00,88.4,71.2,29.82,East,90,6.3,6.3,57,0.00,,,0.00,WUHU216HW,2013-08-03 03:08:00,
2013-08-02 22:09:00,88.4,71.2,29.82,SE,135,4.9,6.3,57,0.00,,,0.00,WUHU216HW,2013-08-03 03:09:00,
2013-08-02 22:10:00,88.4,71.2,29.82,ESE,113,4.7,6.3,57,0.00,,,0.00,WUHU216HW,2013-08-03 03:10:00,
2013-08-02 22:11:00,88.4,71.2,29.82,East,90,6.3,6.3,57,0.00,,,0.00,WUHU216HW,2013-08-03 03:11:00,
2013-08-02 22:12:00,88.4,71.2,29.82,East,90,5.4,6.3,57,0.00,,,0.00,WUHU216HW,2013-08-03 03:12:00,
2013-08-02 22:13:00,88.4,71.2,29.82,SE,135,6.3,6.3,57,0.00,,,0.00,WUHU216HW,2013-08-03 03:13:00,
2013-08-02 22:14:00,88.4,71.2,29.82,ENE,68,5.4,6.3,57,0.00,,,0.00,WUHU216HW,2013-08-03 03:14:00,
2013-08-02 22:15:00,88.4,71.2,29.82,East,90,6.9,6.9,57,0.00,,,0.00,WUHU216HW,2013-08-03 03:15:00,
2013-08-02 22:16:00,88.2,71.1,29.82,ESE,113,4.0,6.9,57,0.00,,,0.00,WUHU216HW,2013-08-03 03:16:00,
2013-08-02 22:17:00,88.2,71.1,29.82,ESE,113,3.4,6.9,57,0.00,,,0.00,WUHU216HW,2013-08-03 03:17:00,
2013-08-02 22:18:00,88.2,71.1,29.82,SE,135,6.0,6.9,57,0.00,,,0.00,WUHU216HW,2013-08-03 03:18:00,
2013-08-02 22:19:00,88.2,71.1,29.82,ESE,113,5.8,6.9,57,0.00,,,0.00,WUHU216HW,2013-08-03 03:19:00,
2013-08-02 22:20:00,88.2,71.1,29.82,ESE,113,6.5,6.9,57,0.00,,,0.00,WUHU216HW,2013-08-03 03:20:00,
2013-08-02 22:21:00,88.2,71.1,29.82,ESE,113,5.1,6.9,57,0.00,,,0.00,WUHU216HW,2013-08-03 03:21:00,
2013-08-02 22:22:00,88.2,71.1,29.83,ESE,113,6.5,6.9,57,0.00,,,0.00,WUHU216HW,2013-08-03 03:22:00,
2013-08-02 22:23:00,88.2,71.1,29.82,SE,135,4.0,6.9,57,0.00,,,0.00,WUHU216HW,2013-08-03 03:23:00,
2013-08-02 22:24:00,88.0,70.9,29.82,ESE,113,3.6,6.9,57,0.00,,,0.00,WUHU216HW,2013-08-03 03:24:00,
2013-08-02 22:25:00,88.0,70.9,29.82,SE,135,3.8,6.5,57,0.00,,,0.00,WUHU216HW,2013-08-03 03:25:00,
2013-08-02 22:26:00,87.8,70.7,29.82,ESE,113,4.7,6.5,57,0.00,,,0.00,WUHU216HW,2013-08-03 03:26:00,
2013-08-02 22:27:00,87.8,71.3,29.82,ESE,113,4.9,6.5,58,0.00,,,0.00,WUHU216HW,2013-08-03 03:27:00,
2013-08-02 22:28:00,87.8,71.3,29.82,ESE,113,4.9,6.5,58,0.00,,,0.00,WUHU216HW,2013-08-03 03:28:00,
2013-08-02 22:29:00,87.8,71.3,29.82,ESE,113,4.5,6.5,58,0.00,,,0.00,WUHU216HW,2013-08-03 03:29:00,
2013-08-02 22:30:00,87.8,71.3,29.82,East,90,4.7,6.5,58,0.00,,,0.00,WUHU216HW,2013-08-03 03:30:00,
2013-08-02 22:31:00,87.7,71.1,29.82,ESE,113,4.7,6.5,58,0.00,,,0.00,WUHU216HW,2013-08-03 03:31:00,
2013-08-02 22:32:00,87.7,71.1,29.82,East,90,4.5,4.9,58,0.00,,,0.00,WUHU216HW,2013-08-03 03:32:00,
2013-08-02 22:33:00,87.7,71.1,29.82,ESE,113,4.7,4.9,58,0.00,,,0.00,WUHU216HW,2013-08-03 03:33:00,
2013-08-02 22:34:00,87.7,71.1,29.83,ESE,113,4.3,4.9,58,0.00,,,0.00,WUHU216HW,2013-08-03 03:34:00,
2013-08-02 22:35:00,87.5,70.9,29.82,ESE,113,3.6,4.9,58,0.00,,,0.00,WUHU216HW,2013-08-03 03:35:00,
2013-08-02 22:36:00,87.5,70.9,29.82,SE,135,5.8,5.8,58,0.00,,,0.00,WUHU216HW,2013-08-03 03:36:00,
2013-08-02 22:37:00,87.5,70.9,29.82,ESE,113,3.6,5.8,58,0.00,,,0.00,WUHU216HW,2013-08-03 03:37:00,
2013-08-02 22:38:00,87.5,70.9,29.83,SE,135,5.1,5.8,58,0.00,,,0.00,WUHU216HW,2013-08-03 03:38:00,
2013-08-02 22:39:00,87.5,70.9,29.82,East,90,4.9,5.8,58,0.00,,,0.00,WUHU216HW,2013-08-03 03:39:00,
2013-08-02 22:40:00,87.5,70.9,29.83,East,90,4.7,5.8,58,0.00,,,0.00,WUHU216HW,2013-08-03 03:40:00,
2013-08-02 22:41:00,87.3,70.7,29.82,ENE,68,4.5,5.8,58,0.00,,,0.00,WUHU216HW,2013-08-03 03:41:00,
2013-08-02 22:42:00,87.3,70.7,29.83,ESE,113,3.6,5.8,58,0.00,,,0.00,WUHU216HW,2013-08-03 03:42:00,
2013-08-02 22:43:00,87.3,70.7,29.82,SE,135,4.0,5.8,58,0.00,,,0.00,WUHU216HW,2013-08-03 03:43:00,
2013-08-02 22:44:00,87.3,70.7,29.82,SE,135,4.0,5.8,58,0.00,,,0.00,WUHU216HW,2013-08-03 03:44:00,
2013-08-02 22:45:00,87.3,71.3,29.83,ESE,113,4.0,5.8,59,0.00,,,0.00,WUHU216HW,2013-08-03 03:45:00,
2013-08-02 22:46:00,87.3,70.7,29.82,ESE,113,4.7,5.1,58,0.00,,,0.00,WUHU216HW,2013-08-03 03:46:00,
2013-08-02 22:47:00,87.3,70.7,29.82,East,90,4.7,5.1,58,0.00,,,0.00,WUHU216HW,2013-08-03 03:47:00,
2013-08-02 22:48:00,87.3,70.7,29.83,ESE,113,5.4,5.4,58,0.00,,,0.00,WUHU216HW,2013-08-03 03:48:00,
2013-08-02 22:49:00,87.3,70.7,29.83,ESE,113,5.1,5.4,58,0.00,,,0.00,WUHU216HW,2013-08-03 03:49:00,
2013-08-02 22:50:00,87.3,70.7,29.83,ESE,113,5.6,5.6,58,0.00,,,0.00,WUHU216HW,2013-08-03 03:50:00,
2013-08-02 22:51:00,87.3,70.7,29.83,ESE,113,4.0,5.6,58,0.00,,,0.00,WUHU216HW,2013-08-03 03:51:00,
2013-08-02 22:52:00,87.3,70.7,29.83,ESE,113,4.3,5.6,58,0.00,,,0.00,WUHU216HW,2013-08-03 03:52:00,
2013-08-02 22:53:00,87.3,70.7,29.83,East,90,4.7,5.6,58,0.00,,,0.00,WUHU216HW,2013-08-03 03:53:00,
2013-08-02 22:54:00,87.1,70.6,29.83,ESE,113,3.6,5.6,58,0.00,,,0.00,WUHU216HW,2013-08-03 03:54:00,
2013-08-02 22:55:00,87.1,70.6,29.83,ESE,113,5.1,5.6,58,0.00,,,0.00,WUHU216HW,2013-08-03 03:55:00,
2013-08-02 22:56:00,87.1,70.6,29.83,ESE,113,4.5,5.6,58,0.00,,,0.00,WUHU216HW,2013-08-03 03:56:00,
2013-08-02 22:57:00,87.1,70.6,29.83,ESE,113,5.8,5.8,58,0.00,,,0.00,WUHU216HW,2013-08-03 03:57:00,
2013-08-02 22:58:00,87.1,70.6,29.83,ESE,113,5.1,5.8,58,0.00,,,0.00,WUHU216HW,2013-08-03 03:58:00,
2013-08-02 22:59:00,87.1,70.6,29.83,ESE,113,5.4,5.8,58,0.00,,,0.00,WUHU216HW,2013-08-03 03:59:00,
2013-08-02 23:00:00,87.1,70.6,29.83,SE,135,5.1,5.8,58,0.00,,,0.00,WUHU216HW,2013-08-03 04:00:00,
2013-08-02 23:01:00,87.1,70.6,29.83,ESE,113,4.0,5.8,58,0.00,,,0.00,WUHU216HW,2013-08-03 04:01:00,
2013-08-02 23:02:00,87.1,70.6,29.83,ESE,113,3.4,5.8,58,0.00,,,0.00,WUHU216HW,2013-08-03 04:02:00,
2013-08-02 23:03:00,87.3,70.7,29.83,ESE,113,4.3,5.8,58,0.00,,,0.00,WUHU216HW,2013-08-03 04:03:00,
2013-08-02 23:04:00,87.3,70.7,29.83,South,180,3.1,5.8,58,0.00,,,0.00,WUHU216HW,2013-08-03 04:04:00,
2013-08-02 23:05:00,87.3,70.7,29.83,ESE,113,3.4,5.8,58,0.00,,,0.00,WUHU216HW,2013-08-03 04:05:00,
2013-08-02 23:06:00,87.3,70.2,29.83,SE,135,4.5,5.8,57,0.00,,,0.00,WUHU216HW,2013-08-03 04:06:00,
2013-08-02 23:07:00,87.3,70.2,29.83,SE,135,3.6,5.8,57,0.00,,,0.00,WUHU216HW,2013-08-03 04:07:00,
2013-08-02 23:08:00,87.3,70.2,29.83,ESE,113,5.4,5.4,57,0.00,,,0.00,WUHU216HW,2013-08-03 04:08:00,
2013-08-02 23:09:00,87.5,70.4,29.83,SE,135,3.4,5.4,57,0.00,,,0.00,WUHU216HW,2013-08-03 04:09:00,
2013-08-02 23:10:00,87.5,70.4,29.83,SE,135,4.9,5.4,57,0.00,,,0.00,WUHU216HW,2013-08-03 04:10:00,
2013-08-02 23:11:00,87.5,70.4,29.83,East,90,4.3,5.4,57,0.00,,,0.00,WUHU216HW,2013-08-03 04:11:00,
2013-08-02 23:12:00,87.5,70.4,29.83,ESE,113,4.9,5.4,57,0.00,,,0.00,WUHU216HW,2013-08-03 04:12:00,
2013-08-02 23:13:00,87.5,70.4,29.83,ESE,113,3.8,5.4,57,0.00,,,0.00,WUHU216HW,2013-08-03 04:13:00,
2013-08-02 23:14:00,87.5,70.4,29.84,ESE,113,4.7,5.4,57,0.00,,,0.00,WUHU216HW,2013-08-03 04:14:00,
2013-08-02 23:15:00,87.5,70.4,29.83,SSE,158,4.0,5.4,57,0.00,,,0.00,WUHU216HW,2013-08-03 04:15:00,
2013-08-02 23:16:00,87.5,70.4,29.83,SE,135,3.4,5.4,57,0.00,,,0.00,WUHU216HW,2013-08-03 04:16:00,
2013-08-02 23:17:00,87.5,70.4,29.83,SE,135,5.4,5.4,57,0.00,,,0.00,WUHU216HW,2013-08-03 04:17:00,
2013-08-02 23:18:00,87.5,70.4,29.83,ESE,113,4.3,5.4,57,0.00,,,0.00,WUHU216HW,2013-08-03 04:18:00,
2013-08-02 23:19:00,87.5,70.4,29.83,SSE,158,4.7,5.4,57,0.00,,,0.00,WUHU216HW,2013-08-03 04:19:00,
2013-08-02 23:20:00,87.5,70.4,29.83,SE,135,4.3,5.4,57,0.00,,,0.00,WUHU216HW,2013-08-03 04:20:00,
2013-08-02 23:21:00,87.5,70.4,29.83,SE,135,4.3,5.4,57,0.00,,,0.00,WUHU216HW,2013-08-03 04:21:00,
2013-08-02 23:22:00,87.5,70.4,29.83,ESE,113,3.6,5.4,57,0.00,,,0.00,WUHU216HW,2013-08-03 04:22:00,
2013-08-02 23:23:00,87.5,70.4,29.83,SE,135,3.1,5.4,57,0.00,,,0.00,WUHU216HW,2013-08-03 04:23:00,
2013-08-02 23:24:00,87.5,69.8,29.83,SE,135,4.7,5.4,56,0.00,,,0.00,WUHU216HW,2013-08-03 04:24:00,
2013-08-02 23:25:00,87.5,69.8,29.83,ESE,113,3.4,5.4,56,0.00,,,0.00,WUHU216HW,2013-08-03 04:25:00,
2013-08-02 23:26:00,87.5,69.8,29.83,ESE,113,4.5,5.4,56,0.00,,,0.00,WUHU216HW,2013-08-03 04:26:00,
2013-08-02 23:27:00,87.5,70.4,29.84,ESE,113,2.7,4.7,57,0.00,,,0.00,WUHU216HW,2013-08-03 04:27:00,
2013-08-02 23:28:00,87.5,69.8,29.84,East,90,4.0,4.7,56,0.00,,,0.00,WUHU216HW,2013-08-03 04:28:00,
2013-08-02 23:29:00,87.5,69.8,29.83,ESE,113,4.0,4.7,56,0.00,,,0.00,WUHU216HW,2013-08-03 04:29:00,
2013-08-02 23:30:00,87.5,69.8,29.83,SE,135,2.5,4.7,56,0.00,,,0.00,WUHU216HW,2013-08-03 04:30:00,
2013-08-02 23:31:00,87.3,70.2,29.83,ESE,113,2.5,4.7,57,0.00,,,0.00,WUHU216HW,2013-08-03 04:31:00,
2013-08-02 23:32:00,87.3,69.7,29.84,SE,135,2.5,4.7,56,0.00,,,0.00,WUHU216HW,2013-08-03 04:32:00,
2013-08-02 23:33:00,87.3,70.2,29.83,ESE,113,3.8,4.7,57,0.00,,,0.00,WUHU216HW,2013-08-03 04:33:00,
2013-08-02 23:34:00,87.3,70.2,29.84,SE,135,3.8,4.5,57,0.00,,,0.00,WUHU216HW,2013-08-03 04:34:00,
2013-08-02 23:35:00,87.3,70.2,29.83,SE,135,3.4,4.5,57,0.00,,,0.00,WUHU216HW,2013-08-03 04:35:00,
2013-08-02 23:36:00,87.3,70.2,29.83,SE,135,2.0,4.0,57,0.00,,,0.00,WUHU216HW,2013-08-03 04:36:00,
2013-08-02 23:37:00,87.3,70.2,29.83,SE,135,2.7,4.0,57,0.00,,,0.00,WUHU216HW,2013-08-03 04:37:00,
2013-08-02 23:38:00,87.1,70.0,29.84,ESE,113,3.6,4.0,57,0.00,,,0.00,WUHU216HW,2013-08-03 04:38:00,
2013-08-02 23:39:00,87.1,69.5,29.84,SE,135,3.4,3.8,56,0.00,,,0.00,WUHU216HW,2013-08-03 04:39:00,
2013-08-02 23:40:00,87.1,70.0,29.83,SE,135,1.1,3.8,57,0.00,,,0.00,WUHU216HW,2013-08-03 04:40:00,
2013-08-02 23:41:00,87.1,70.0,29.84,SE,135,1.6,3.8,57,0.00,,,0.00,WUHU216HW,2013-08-03 04:41:00,
2013-08-02 23:42:00,87.1,70.0,29.84,SSE,158,1.3,3.8,57,0.00,,,0.00,WUHU216HW,2013-08-03 04:42:00,
2013-08-02 23:43:00,87.1,70.0,29.84,SSE,158,2.0,3.8,57,0.00,,,0.00,WUHU216HW,2013-08-03 04:43:00,
2013-08-02 23:44:00,87.1,70.0,29.83,SE,135,3.8,3.8,57,0.00,,,0.00,WUHU216HW,2013-08-03 04:44:00,
2013-08-02 23:45:00,87.1,70.0,29.84,SE,135,2.5,3.8,57,0.00,,,0.00,WUHU216HW,2013-08-03 04:45:00,
2013-08-02 23:46:00,87.1,70.0,29.84,SE,135,3.4,3.8,57,0.00,,,0.00,WUHU216HW,2013-08-03 04:46:00,
2013-08-02 23:47:00,87.1,70.0,29.83,SE,135,2.2,3.8,57,0.00,,,0.00,WUHU216HW,2013-08-03 04:47:00,
2013-08-02 23:48:00,86.9,69.8,29.83,SE,135,2.0,3.8,57,0.00,,,0.00,WUHU216HW,2013-08-03 04:48:00,
2013-08-02 23:49:00,86.9,69.3,29.83,East,90,4.5,4.5,56,0.00,,,0.00,WUHU216HW,2013-08-03 04:49:00,
2013-08-02 23:50:00,86.9,69.8,29.84,SE,135,2.9,4.5,57,0.00,,,0.00,WUHU216HW,2013-08-03 04:50:00,
2013-08-02 23:51:00,86.9,69.3,29.84,SE,135,3.1,4.5,56,0.00,,,0.00,WUHU216HW,2013-08-03 04:51:00,
2013-08-02 23:52:00,86.9,69.3,29.84,SE,135,6.3,6.3,56,0.00,,,0.00,WUHU216HW,2013-08-03 04:52:00,
2013-08-02 23:53:00,86.9,69.3,29.84,SE,135,2.5,6.3,56,0.00,,,0.00,WUHU216HW,2013-08-03 04:53:00,
2013-08-02 23:54:00,86.9,69.3,29.84,SE,135,4.0,6.3,56,0.00,,,0.00,WUHU216HW,2013-08-03 04:54:00,
2013-08-02 23:55:00,86.9,69.3,29.84,SE,135,3.8,6.3,56,0.00,,,0.00,WUHU216HW,2013-08-03 04:55:00,
2013-08-02 23:56:00,86.9,69.3,29.84,East,90,2.7,6.3,56,0.00,,,0.00,WUHU216HW,2013-08-03 04:56:00,
2013-08-02 23:57:00,86.9,69.3,29.84,SE,135,4.0,6.3,56,0.00,,,0.00,WUHU216HW,2013-08-03 04:57:00,
2013-08-02 23:58:00,86.9,69.3,29.84,ESE,113,3.1,6.3,56,0.00,,,0.00,WUHU216HW,2013-08-03 04:58:00,
2013-08-02 23:59:00,86.9,69.3,29.84,SE,135,5.4,6.3,56,0.00,,,0.00,WUHU216HW,2013-08-03 04:59:00,